Wetterdaten: Freitag, 22.07.2016
Datum Zeit Temp. A. Feuchte A. Luftdruck Regen Wind Richtung Richtung Sonnenschein ET UV Solar Taupunkt Windchill Windben Empfang
22.07.2016 00:00 19,0 C 91 % 1014,0 hPa 0,0 l/m 1,4 km/h (1 Bft) S 180 0 min 0,000 mm 0,0 UV-I 0 W/m 17,5 C 19,0 C 1,6 km/h (1 Bft) 100,00 %
22.07.2016 00:02 19,0 C 91 % 1014,0 hPa 0,0 l/m 1,0 km/h (0 Bft) S 180 0 min 0,000 mm 0,0 UV-I 0 W/m 17,5 C 19,0 C 3,2 km/h (1 Bft) 95,56 %
22.07.2016 00:04 18,9 C 91 % 1014,0 hPa 0,0 l/m 1,7 km/h (1 Bft) S 180 0 min 0,000 mm 0,0 UV-I 0 W/m 17,4 C 18,9 C 3,2 km/h (1 Bft) 100,00 %
22.07.2016 00:06 18,9 C 91 % 1014,0 hPa 0,0 l/m 1,2 km/h (1 Bft) S 180 0 min 0,000 mm 0,0 UV-I 0 W/m 17,4 C 18,9 C 1,6 km/h (1 Bft) 100,00 %
22.07.2016 00:08 18,9 C 92 % 1014,0 hPa 0,0 l/m 1,7 km/h (1 Bft) S 180 0 min 0,000 mm 0,0 UV-I 0 W/m 17,6 C 18,9 C 3,2 km/h (1 Bft) 97,87 %
22.07.2016 00:10 18,9 C 92 % 1014,0 hPa 0,0 l/m 0,2 km/h (0 Bft) S 180 0 min 0,000 mm 0,0 UV-I 0 W/m 17,6 C 18,9 C 1,6 km/h (1 Bft) 97,87 %
22.07.2016 00:12 18,9 C 92 % 1014,0 hPa 0,0 l/m 0,0 km/h (0 Bft) S 180 0 min 0,000 mm 0,0 UV-I 0 W/m 17,6 C 18,9 C 0,0 km/h (0 Bft) 100,00 %
22.07.2016 00:14 18,9 C 92 % 1014,0 hPa 0,0 l/m 0,0 km/h (0 Bft) S 180 0 min 0,000 mm 0,0 UV-I 0 W/m 17,6 C 18,9 C 0,0 km/h (0 Bft) 100,00 %
22.07.2016 00:16 18,9 C 92 % 1014,0 hPa 0,0 l/m 1,7 km/h (1 Bft) S 190 0 min 0,000 mm 0,0 UV-I 0 W/m 17,6 C 18,9 C 4,8 km/h (1 Bft) 100,00 %
22.07.2016 00:18 19,1 C 92 % 1014,0 hPa 0,0 l/m 0,8 km/h (0 Bft) S 190 0 min 0,000 mm 0,0 UV-I 0 W/m 17,8 C 19,1 C 1,6 km/h (1 Bft) 97,87 %
22.07.2016 00:20 19,1 C 92 % 1014,0 hPa 0,0 l/m 1,3 km/h (1 Bft) S 190 0 min 0,000 mm 0,0 UV-I 0 W/m 17,8 C 19,1 C 3,2 km/h (1 Bft) 100,00 %
22.07.2016 00:22 19,1 C 92 % 1014,0 hPa 0,0 l/m 1,5 km/h (1 Bft) S 190 0 min 0,000 mm 0,0 UV-I 0 W/m 17,8 C 19,1 C 3,2 km/h (1 Bft) 100,00 %
22.07.2016 00:24 19,2 C 92 % 1013,9 hPa 0,0 l/m 1,0 km/h (0 Bft) S 190 0 min 0,000 mm 0,0 UV-I 0 W/m 17,9 C 19,2 C 3,2 km/h (1 Bft) 100,00 %
22.07.2016 00:26 19,2 C 91 % 1013,9 hPa 0,0 l/m 0,9 km/h (0 Bft) S 190 0 min 0,000 mm 0,0 UV-I 0 W/m 17,7 C 19,2 C 3,2 km/h (1 Bft) 97,87 %
22.07.2016 00:28 19,2 C 91 % 1013,9 hPa 0,0 l/m 1,2 km/h (1 Bft) S 190 0 min 0,000 mm 0,0 UV-I 0 W/m 17,7 C 19,2 C 3,2 km/h (1 Bft) 100,00 %
22.07.2016 00:30 19,2 C 91 % 1013,8 hPa 0,0 l/m 0,7 km/h (0 Bft) S 190 0 min 0,000 mm 0,0 UV-I 0 W/m 17,7 C 19,2 C 1,6 km/h (1 Bft) 100,00 %
22.07.2016 00:32 19,2 C 92 % 1013,9 hPa 0,0 l/m 1,2 km/h (1 Bft) S 190 0 min 0,000 mm 0,0 UV-I 0 W/m 17,9 C 19,2 C 3,2 km/h (1 Bft) 97,87 %
22.07.2016 00:34 19,2 C 92 % 1013,9 hPa 0,0 l/m 2,0 km/h (1 Bft) S 190 0 min 0,000 mm 0,0 UV-I 0 W/m 17,9 C 19,2 C 3,2 km/h (1 Bft) 97,87 %
22.07.2016 00:36 19,2 C 92 % 1013,9 hPa 0,0 l/m 2,5 km/h (1 Bft) S 190 0 min 0,000 mm 0,0 UV-I 0 W/m 17,9 C 19,2 C 3,2 km/h (1 Bft) 97,87 %
22.07.2016 00:38 19,2 C 92 % 1013,9 hPa 0,0 l/m 2,4 km/h (1 Bft) S 190 0 min 0,000 mm 0,0 UV-I 0 W/m 17,9 C 19,2 C 4,8 km/h (1 Bft) 95,74 %
22.07.2016 00:40 19,2 C 92 % 1013,9 hPa 0,0 l/m 2,2 km/h (1 Bft) S 190 0 min 0,000 mm 0,0 UV-I 0 W/m 17,9 C 19,2 C 3,2 km/h (1 Bft) 95,74 %
22.07.2016 00:42 19,3 C 92 % 1014,0 hPa 0,0 l/m 1,8 km/h (1 Bft) S 190 0 min 0,000 mm 0,0 UV-I 0 W/m 18,0 C 19,3 C 3,2 km/h (1 Bft) 95,74 %
22.07.2016 00:44 19,2 C 92 % 1014,0 hPa 0,0 l/m 0,5 km/h (0 Bft) S 190 0 min 0,000 mm 0,0 UV-I 0 W/m 17,9 C 19,2 C 1,6 km/h (1 Bft) 98,00 %
22.07.2016 00:46 19,3 C 92 % 1013,9 hPa 0,0 l/m 0,8 km/h (0 Bft) S 190 0 min 0,000 mm 0,0 UV-I 0 W/m 18,0 C 19,3 C 3,2 km/h (1 Bft) 94,00 %
22.07.2016 00:48 19,3 C 92 % 1013,9 hPa 0,0 l/m 0,0 km/h (0 Bft) S 190 0 min 0,000 mm 0,0 UV-I 0 W/m 18,0 C 19,3 C 1,6 km/h (1 Bft) 97,37 %
22.07.2016 00:50 19,3 C 92 % 1013,9 hPa 0,0 l/m 1,0 km/h (0 Bft) S 190 0 min 0,000 mm 0,0 UV-I 0 W/m 18,0 C 19,3 C 3,2 km/h (1 Bft) 93,62 %
22.07.2016 00:52 19,3 C 92 % 1013,9 hPa 0,0 l/m 1,1 km/h (1 Bft) S 190 0 min 0,000 mm 0,0 UV-I 0 W/m 18,0 C 19,3 C 3,2 km/h (1 Bft) 97,87 %
22.07.2016 00:54 19,3 C 92 % 1013,8 hPa 0,0 l/m 0,0 km/h (0 Bft) S 190 0 min 0,000 mm 0,0 UV-I 0 W/m 18,0 C 19,3 C 1,6 km/h (1 Bft) 93,62 %
22.07.2016 00:56 19,4 C 92 % 1013,9 hPa 0,0 l/m 0,0 km/h (0 Bft) S 190 0 min 0,000 mm 0,0 UV-I 0 W/m 18,1 C 19,4 C 0,0 km/h (0 Bft) 97,87 %
22.07.2016 00:58 19,4 C 93 % 1013,8 hPa 0,0 l/m 0,0 km/h (0 Bft) S 190 0 min 0,000 mm 0,0 UV-I 0 W/m 18,2 C 19,4 C 0,0 km/h (0 Bft) 97,87 %
22.07.2016 01:00 19,4 C 93 % 1013,9 hPa 0,0 l/m 1,2 km/h (1 Bft) S 190 0 min 0,000 mm 0,0 UV-I 0 W/m 18,2 C 19,4 C 3,2 km/h (1 Bft) 97,87 %
22.07.2016 01:02 19,3 C 92 % 1013,8 hPa 0,0 l/m 2,0 km/h (1 Bft) S 190 0 min 0,000 mm 0,0 UV-I 0 W/m 18,0 C 19,3 C 3,2 km/h (1 Bft) 97,92 %
22.07.2016 01:04 19,3 C 93 % 1013,8 hPa 0,0 l/m 2,4 km/h (1 Bft) S 190 0 min 0,000 mm 0,0 UV-I 0 W/m 18,1 C 19,3 C 3,2 km/h (1 Bft) 93,62 %
22.07.2016 01:06 19,3 C 92 % 1013,8 hPa 0,0 l/m 1,1 km/h (1 Bft) S 190 0 min 0,000 mm 0,0 UV-I 0 W/m 18,0 C 19,3 C 3,2 km/h (1 Bft) 96,00 %
22.07.2016 01:08 19,3 C 92 % 1013,7 hPa 0,0 l/m 0,7 km/h (0 Bft) S 190 0 min 0,000 mm 0,0 UV-I 0 W/m 18,0 C 19,3 C 1,6 km/h (1 Bft) 100,00 %
22.07.2016 01:10 19,3 C 92 % 1013,7 hPa 0,0 l/m 0,5 km/h (0 Bft) S 190 0 min 0,000 mm 0,0 UV-I 0 W/m 18,0 C 19,3 C 1,6 km/h (1 Bft) 97,87 %
22.07.2016 01:12 19,3 C 93 % 1013,7 hPa 0,0 l/m 1,1 km/h (1 Bft) S 190 0 min 0,000 mm 0,0 UV-I 0 W/m 18,1 C 19,3 C 3,2 km/h (1 Bft) 100,00 %
22.07.2016 01:14 19,3 C 92 % 1013,7 hPa 0,0 l/m 1,0 km/h (0 Bft) S 190 0 min 0,000 mm 0,0 UV-I 0 W/m 18,0 C 19,3 C 3,2 km/h (1 Bft) 100,00 %
22.07.2016 01:16 19,2 C 92 % 1013,6 hPa 0,0 l/m 1,4 km/h (1 Bft) S 190 0 min 0,000 mm 0,0 UV-I 0 W/m 17,9 C 19,2 C 3,2 km/h (1 Bft) 97,87 %
22.07.2016 01:18 19,2 C 92 % 1013,7 hPa 0,0 l/m 3,9 km/h (1 Bft) S 190 0 min 0,000 mm 0,0 UV-I 0 W/m 17,9 C 19,2 C 6,4 km/h (2 Bft) 100,00 %
22.07.2016 01:20 19,2 C 92 % 1013,7 hPa 0,0 l/m 4,0 km/h (1 Bft) S 190 0 min 0,000 mm 0,0 UV-I 0 W/m 17,9 C 19,2 C 6,4 km/h (2 Bft) 100,00 %
22.07.2016 01:22 19,1 C 93 % 1013,7 hPa 0,0 l/m 3,3 km/h (1 Bft) S 188 0 min 0,000 mm 0,0 UV-I 0 W/m 17,9 C 19,1 C 4,8 km/h (1 Bft) 100,00 %
22.07.2016 01:24 19,1 C 93 % 1013,7 hPa 0,0 l/m 3,8 km/h (1 Bft) S 188 0 min 0,000 mm 0,0 UV-I 0 W/m 17,9 C 19,1 C 6,4 km/h (2 Bft) 100,00 %
22.07.2016 01:26 19,1 C 93 % 1013,7 hPa 0,0 l/m 4,6 km/h (1 Bft) S 186 0 min 0,000 mm 0,0 UV-I 0 W/m 17,9 C 19,1 C 6,4 km/h (2 Bft) 100,00 %
22.07.2016 01:28 19,1 C 93 % 1013,8 hPa 0,0 l/m 3,8 km/h (1 Bft) S 186 0 min 0,000 mm 0,0 UV-I 0 W/m 17,9 C 19,1 C 4,8 km/h (1 Bft) 100,00 %
22.07.2016 01:30 19,0 C 93 % 1013,7 hPa 0,0 l/m 4,1 km/h (1 Bft) S 185 0 min 0,000 mm 0,0 UV-I 0 W/m 17,8 C 19,0 C 6,4 km/h (2 Bft) 95,74 %
22.07.2016 01:32 19,0 C 93 % 1013,7 hPa 0,0 l/m 5,4 km/h (1 Bft) S 177 0 min 0,000 mm 0,0 UV-I 0 W/m 17,8 C 19,0 C 9,7 km/h (2 Bft) 100,00 %
22.07.2016 01:34 19,0 C 93 % 1013,7 hPa 0,0 l/m 5,1 km/h (1 Bft) S 175 0 min 0,000 mm 0,0 UV-I 0 W/m 17,8 C 19,0 C 8,0 km/h (2 Bft) 97,87 %
22.07.2016 01:36 19,0 C 93 % 1013,7 hPa 0,0 l/m 4,5 km/h (1 Bft) S 178 0 min 0,000 mm 0,0 UV-I 0 W/m 17,8 C 19,0 C 8,0 km/h (2 Bft) 100,00 %
22.07.2016 01:38 19,0 C 93 % 1013,7 hPa 0,0 l/m 4,6 km/h (1 Bft) S 187 0 min 0,000 mm 0,0 UV-I 0 W/m 17,8 C 19,0 C 8,0 km/h (2 Bft) 95,74 %
22.07.2016 01:40 19,0 C 93 % 1013,7 hPa 0,0 l/m 5,3 km/h (1 Bft) S 176 0 min 0,000 mm 0,0 UV-I 0 W/m 17,8 C 19,0 C 6,4 km/h (2 Bft) 97,22 %
22.07.2016 01:42 19,0 C 93 % 1013,7 hPa 0,0 l/m 5,2 km/h (1 Bft) S 170 0 min 0,000 mm 0,0 UV-I 0 W/m 17,8 C 19,0 C 8,0 km/h (2 Bft) 100,00 %
22.07.2016 01:44 19,1 C 93 % 1013,7 hPa 0,0 l/m 5,5 km/h (1 Bft) S 181 0 min 0,000 mm 0,0 UV-I 0 W/m 17,9 C 19,1 C 8,0 km/h (2 Bft) 100,00 %
22.07.2016 01:46 19,1 C 93 % 1013,7 hPa 0,0 l/m 4,8 km/h (1 Bft) S 180 0 min 0,000 mm 0,0 UV-I 0 W/m 17,9 C 19,1 C 6,4 km/h (2 Bft) 97,87 %
22.07.2016 01:48 19,1 C 92 % 1013,7 hPa 0,0 l/m 5,0 km/h (1 Bft) S 186 0 min 0,000 mm 0,0 UV-I 0 W/m 17,8 C 19,1 C 8,0 km/h (2 Bft) 97,87 %
22.07.2016 01:50 19,1 C 92 % 1013,7 hPa 0,0 l/m 3,2 km/h (1 Bft) S 186 0 min 0,000 mm 0,0 UV-I 0 W/m 17,8 C 19,1 C 4,8 km/h (1 Bft) 100,00 %
22.07.2016 01:52 19,1 C 92 % 1013,7 hPa 0,0 l/m 4,0 km/h (1 Bft) S-SW 204 0 min 0,000 mm 0,0 UV-I 0 W/m 17,8 C 19,1 C 6,4 km/h (2 Bft) 100,00 %
22.07.2016 01:54 19,1 C 92 % 1013,8 hPa 0,0 l/m 4,5 km/h (1 Bft) S-SW 204 0 min 0,000 mm 0,0 UV-I 0 W/m 17,8 C 19,1 C 6,4 km/h (2 Bft) 100,00 %
22.07.2016 01:56 19,1 C 92 % 1013,9 hPa 0,0 l/m 4,1 km/h (1 Bft) S-SW 213 0 min 0,000 mm 0,0 UV-I 0 W/m 17,8 C 19,1 C 6,4 km/h (2 Bft) 100,00 %
22.07.2016 01:58 19,1 C 92 % 1013,9 hPa 0,0 l/m 4,9 km/h (1 Bft) SW 215 0 min 0,000 mm 0,0 UV-I 0 W/m 17,8 C 19,1 C 6,4 km/h (2 Bft) 100,00 %
22.07.2016 02:00 19,1 C 92 % 1013,9 hPa 0,0 l/m 4,7 km/h (1 Bft) SW 216 0 min 0,000 mm 0,0 UV-I 0 W/m 17,8 C 19,1 C 6,4 km/h (2 Bft) 100,00 %
22.07.2016 02:02 19,1 C 92 % 1014,0 hPa 0,0 l/m 4,7 km/h (1 Bft) S-SW 206 0 min 0,000 mm 0,0 UV-I 0 W/m 17,8 C 19,1 C 6,4 km/h (2 Bft) 100,00 %
22.07.2016 02:04 19,1 C 93 % 1014,0 hPa 0,0 l/m 5,8 km/h (2 Bft) S-SW 192 0 min 0,000 mm 0,0 UV-I 0 W/m 17,9 C 19,1 C 8,0 km/h (2 Bft) 100,00 %
22.07.2016 02:06 19,1 C 93 % 1014,0 hPa 0,0 l/m 6,8 km/h (2 Bft) S 187 0 min 0,000 mm 0,0 UV-I 0 W/m 17,9 C 18,9 C 9,7 km/h (2 Bft) 100,00 %
22.07.2016 02:08 19,1 C 93 % 1014,0 hPa 0,0 l/m 8,3 km/h (2 Bft) S 191 0 min 0,000 mm 0,0 UV-I 0 W/m 17,9 C 18,3 C 12,9 km/h (3 Bft) 100,00 %
22.07.2016 02:10 19,1 C 93 % 1014,0 hPa 0,0 l/m 9,1 km/h (2 Bft) S-SW 198 0 min 0,000 mm 0,0 UV-I 0 W/m 17,9 C 18,0 C 11,3 km/h (2 Bft) 100,00 %
22.07.2016 02:12 19,1 C 93 % 1013,9 hPa 0,0 l/m 7,8 km/h (2 Bft) S 190 0 min 0,000 mm 0,0 UV-I 0 W/m 17,9 C 18,5 C 12,9 km/h (3 Bft) 97,56 %
22.07.2016 02:14 19,2 C 93 % 1014,0 hPa 0,0 l/m 9,3 km/h (2 Bft) S-SW 194 0 min 0,000 mm 0,0 UV-I 0 W/m 18,0 C 18,0 C 12,9 km/h (3 Bft) 100,00 %
22.07.2016 02:16 19,2 C 93 % 1014,0 hPa 0,0 l/m 7,7 km/h (2 Bft) S-SW 193 0 min 0,000 mm 0,0 UV-I 0 W/m 18,0 C 18,6 C 11,3 km/h (2 Bft) 100,00 %
22.07.2016 02:18 19,2 C 93 % 1014,0 hPa 0,0 l/m 11,5 km/h (2 Bft) S-SW 201 0 min 0,000 mm 0,0 UV-I 0 W/m 18,0 C 17,3 C 16,1 km/h (3 Bft) 97,87 %
22.07.2016 02:20 19,2 C 92 % 1014,0 hPa 0,0 l/m 8,8 km/h (2 Bft) S-SW 206 0 min 0,000 mm 0,0 UV-I 0 W/m 17,9 C 18,2 C 14,5 km/h (3 Bft) 100,00 %
22.07.2016 02:22 19,2 C 92 % 1014,0 hPa 0,0 l/m 7,5 km/h (2 Bft) S-SO 166 0 min 0,000 mm 0,0 UV-I 0 W/m 17,9 C 18,7 C 11,3 km/h (2 Bft) 97,87 %
22.07.2016 02:24 19,2 C 92 % 1014,0 hPa 0,0 l/m 6,5 km/h (2 Bft) S-SW 200 0 min 0,000 mm 0,0 UV-I 0 W/m 17,9 C 19,2 C 12,9 km/h (3 Bft) 100,00 %
22.07.2016 02:26 19,2 C 92 % 1014,0 hPa 0,0 l/m 6,8 km/h (2 Bft) S 186 0 min 0,000 mm 0,0 UV-I 0 W/m 17,9 C 19,0 C 11,3 km/h (2 Bft) 97,87 %
22.07.2016 02:28 19,2 C 93 % 1013,9 hPa 0,0 l/m 5,7 km/h (1 Bft) SW 228 0 min 0,000 mm 0,0 UV-I 0 W/m 18,0 C 19,2 C 9,7 km/h (2 Bft) 98,00 %
22.07.2016 02:30 19,1 C 92 % 1014,0 hPa 0,0 l/m 7,2 km/h (2 Bft) S-SW 204 0 min 0,000 mm 0,0 UV-I 0 W/m 17,8 C 18,7 C 12,9 km/h (3 Bft) 98,00 %
22.07.2016 02:32 19,1 C 92 % 1014,0 hPa 0,0 l/m 8,6 km/h (2 Bft) S-SW 207 0 min 0,000 mm 0,0 UV-I 0 W/m 17,8 C 18,2 C 12,9 km/h (3 Bft) 95,74 %
22.07.2016 02:34 19,1 C 93 % 1014,0 hPa 0,0 l/m 5,7 km/h (1 Bft) S 189 0 min 0,000 mm 0,0 UV-I 0 W/m 17,9 C 19,1 C 8,0 km/h (2 Bft) 93,62 %
22.07.2016 02:36 19,0 C 93 % 1014,0 hPa 0,0 l/m 4,8 km/h (1 Bft) S-SW 202 0 min 0,000 mm 0,0 UV-I 0 W/m 17,8 C 19,0 C 8,0 km/h (2 Bft) 97,14 %
22.07.2016 02:38 19,0 C 93 % 1014,1 hPa 0,0 l/m 5,2 km/h (1 Bft) S 190 0 min 0,000 mm 0,0 UV-I 0 W/m 17,8 C 19,0 C 9,7 km/h (2 Bft) 95,74 %
22.07.2016 02:40 19,0 C 93 % 1014,1 hPa 0,0 l/m 6,3 km/h (2 Bft) S 175 0 min 0,000 mm 0,0 UV-I 0 W/m 17,8 C 19,0 C 9,7 km/h (2 Bft) 98,00 %
22.07.2016 02:42 18,9 C 93 % 1014,1 hPa 0,0 l/m 7,1 km/h (2 Bft) S-SW 213 0 min 0,000 mm 0,0 UV-I 0 W/m 17,7 C 18,6 C 12,9 km/h (3 Bft) 95,74 %
22.07.2016 02:44 18,9 C 93 % 1014,0 hPa 0,0 l/m 5,3 km/h (1 Bft) W-SW 248 0 min 0,000 mm 0,0 UV-I 0 W/m 17,7 C 18,9 C 9,7 km/h (2 Bft) 95,74 %
22.07.2016 02:46 18,9 C 93 % 1014,0 hPa 0,0 l/m 5,4 km/h (1 Bft) S-SW 199 0 min 0,000 mm 0,0 UV-I 0 W/m 17,7 C 18,9 C 9,7 km/h (2 Bft) 97,87 %
22.07.2016 02:48 18,9 C 93 % 1014,0 hPa 0,0 l/m 8,5 km/h (2 Bft) S 191 0 min 0,000 mm 0,0 UV-I 0 W/m 17,7 C 18,0 C 14,5 km/h (3 Bft) 95,74 %
22.07.2016 02:50 18,9 C 93 % 1014,0 hPa 0,0 l/m 8,1 km/h (2 Bft) S-SW 206 0 min 0,000 mm 0,0 UV-I 0 W/m 17,7 C 18,2 C 9,7 km/h (2 Bft) 97,87 %
22.07.2016 02:52 18,9 C 93 % 1014,0 hPa 0,0 l/m 7,0 km/h (2 Bft) S-SW 204 0 min 0,000 mm 0,0 UV-I 0 W/m 17,7 C 18,6 C 11,3 km/h (2 Bft) 95,74 %
22.07.2016 02:54 18,9 C 93 % 1014,0 hPa 0,0 l/m 3,9 km/h (1 Bft) S-SW 202 0 min 0,000 mm 0,0 UV-I 0 W/m 17,7 C 18,9 C 8,0 km/h (2 Bft) 97,87 %
22.07.2016 02:56 18,9 C 93 % 1014,0 hPa 0,0 l/m 6,0 km/h (2 Bft) W-SW 251 0 min 0,000 mm 0,0 UV-I 0 W/m 17,7 C 18,9 C 9,7 km/h (2 Bft) 96,00 %
22.07.2016 02:58 18,8 C 93 % 1013,9 hPa 0,0 l/m 5,6 km/h (1 Bft) SW 215 0 min 0,000 mm 0,0 UV-I 0 W/m 17,6 C 18,8 C 9,7 km/h (2 Bft) 97,87 %
22.07.2016 03:00 18,8 C 93 % 1013,9 hPa 0,0 l/m 6,2 km/h (2 Bft) SW 234 0 min 0,000 mm 0,0 UV-I 0 W/m 17,6 C 18,8 C 8,0 km/h (2 Bft) 97,87 %
22.07.2016 03:02 18,8 C 93 % 1013,9 hPa 0,0 l/m 3,8 km/h (1 Bft) SW 231 0 min 0,000 mm 0,0 UV-I 0 W/m 17,6 C 18,8 C 6,4 km/h (2 Bft) 97,92 %
22.07.2016 03:04 18,8 C 93 % 1014,0 hPa 0,0 l/m 3,9 km/h (1 Bft) SW 232 0 min 0,000 mm 0,0 UV-I 0 W/m 17,6 C 18,8 C 4,8 km/h (1 Bft) 95,74 %
22.07.2016 03:06 18,8 C 93 % 1014,0 hPa 0,0 l/m 3,8 km/h (1 Bft) W-SW 252 0 min 0,000 mm 0,0 UV-I 0 W/m 17,6 C 18,8 C 6,4 km/h (2 Bft) 100,00 %
22.07.2016 03:08 18,8 C 93 % 1014,0 hPa 0,0 l/m 2,1 km/h (1 Bft) W-SW 252 0 min 0,000 mm 0,0 UV-I 0 W/m 17,6 C 18,8 C 3,2 km/h (1 Bft) 100,00 %
22.07.2016 03:10 18,8 C 93 % 1014,0 hPa 0,0 l/m 3,7 km/h (1 Bft) W-SW 252 0 min 0,000 mm 0,0 UV-I 0 W/m 17,6 C 18,8 C 4,8 km/h (1 Bft) 100,00 %
22.07.2016 03:12 18,8 C 93 % 1014,0 hPa 0,0 l/m 3,9 km/h (1 Bft) W-SW 254 0 min 0,000 mm 0,0 UV-I 0 W/m 17,6 C 18,8 C 6,4 km/h (2 Bft) 97,87 %
22.07.2016 03:14 18,8 C 93 % 1014,0 hPa 0,0 l/m 3,7 km/h (1 Bft) SW 214 0 min 0,000 mm 0,0 UV-I 0 W/m 17,6 C 18,8 C 4,8 km/h (1 Bft) 97,87 %
22.07.2016 03:16 18,7 C 93 % 1014,1 hPa 0,0 l/m 5,0 km/h (1 Bft) SW 227 0 min 0,000 mm 0,0 UV-I 0 W/m 17,5 C 18,7 C 8,0 km/h (2 Bft) 100,00 %
22.07.2016 03:18 18,7 C 93 % 1014,0 hPa 0,0 l/m 4,7 km/h (1 Bft) SW 226 0 min 0,000 mm 0,0 UV-I 0 W/m 17,5 C 18,7 C 6,4 km/h (2 Bft) 93,62 %
22.07.2016 03:20 18,7 C 93 % 1014,1 hPa 0,0 l/m 4,1 km/h (1 Bft) SW 232 0 min 0,000 mm 0,0 UV-I 0 W/m 17,5 C 18,7 C 6,4 km/h (2 Bft) 100,00 %
22.07.2016 03:22 18,7 C 93 % 1014,1 hPa 0,0 l/m 5,0 km/h (1 Bft) S-SW 213 0 min 0,000 mm 0,0 UV-I 0 W/m 17,5 C 18,7 C 8,0 km/h (2 Bft) 97,87 %
22.07.2016 03:24 18,7 C 93 % 1014,1 hPa 0,0 l/m 5,3 km/h (1 Bft) SW 221 0 min 0,000 mm 0,0 UV-I 0 W/m 17,5 C 18,7 C 8,0 km/h (2 Bft) 95,74 %
22.07.2016 03:26 18,7 C 93 % 1014,0 hPa 0,0 l/m 5,3 km/h (1 Bft) SW 229 0 min 0,000 mm 0,0 UV-I 0 W/m 17,5 C 18,7 C 8,0 km/h (2 Bft) 97,87 %
22.07.2016 03:28 18,7 C 93 % 1014,1 hPa 0,0 l/m 5,7 km/h (1 Bft) SW 224 0 min 0,000 mm 0,0 UV-I 0 W/m 17,5 C 18,7 C 8,0 km/h (2 Bft) 100,00 %
22.07.2016 03:30 18,7 C 93 % 1014,0 hPa 0,0 l/m 4,9 km/h (1 Bft) S-SW 213 0 min 0,000 mm 0,0 UV-I 0 W/m 17,5 C 18,7 C 6,4 km/h (2 Bft) 97,37 %
22.07.2016 03:32 18,7 C 93 % 1014,0 hPa 0,0 l/m 6,1 km/h (2 Bft) SW 231 0 min 0,000 mm 0,0 UV-I 0 W/m 17,5 C 18,7 C 8,0 km/h (2 Bft) 100,00 %
22.07.2016 03:34 18,7 C 93 % 1014,1 hPa 0,0 l/m 6,5 km/h (2 Bft) SW 223 0 min 0,000 mm 0,0 UV-I 0 W/m 17,5 C 18,7 C 8,0 km/h (2 Bft) 100,00 %
22.07.2016 03:36 18,7 C 93 % 1014,0 hPa 0,0 l/m 5,3 km/h (1 Bft) SW 215 0 min 0,000 mm 0,0 UV-I 0 W/m 17,5 C 18,7 C 8,0 km/h (2 Bft) 97,87 %
22.07.2016 03:38 18,7 C 93 % 1014,0 hPa 0,0 l/m 4,5 km/h (1 Bft) S 186 0 min 0,000 mm 0,0 UV-I 0 W/m 17,5 C 18,7 C 6,4 km/h (2 Bft) 100,00 %
22.07.2016 03:40 18,7 C 93 % 1014,0 hPa 0,0 l/m 6,0 km/h (2 Bft) S-SW 204 0 min 0,000 mm 0,0 UV-I 0 W/m 17,5 C 18,7 C 9,7 km/h (2 Bft) 100,00 %
22.07.2016 03:42 18,7 C 93 % 1013,9 hPa 0,0 l/m 6,0 km/h (2 Bft) S-SW 207 0 min 0,000 mm 0,0 UV-I 0 W/m 17,5 C 18,7 C 8,0 km/h (2 Bft) 97,92 %
22.07.2016 03:44 18,7 C 93 % 1013,9 hPa 0,0 l/m 6,1 km/h (2 Bft) SW 219 0 min 0,000 mm 0,0 UV-I 0 W/m 17,5 C 18,7 C 8,0 km/h (2 Bft) 97,87 %
22.07.2016 03:46 18,7 C 93 % 1013,9 hPa 0,0 l/m 4,5 km/h (1 Bft) SW 219 0 min 0,000 mm 0,0 UV-I 0 W/m 17,5 C 18,7 C 6,4 km/h (2 Bft) 100,00 %
22.07.2016 03:48 18,7 C 93 % 1013,9 hPa 0,0 l/m 5,4 km/h (1 Bft) SW 216 0 min 0,000 mm 0,0 UV-I 0 W/m 17,5 C 18,7 C 8,0 km/h (2 Bft) 100,00 %
22.07.2016 03:50 18,7 C 93 % 1013,9 hPa 0,0 l/m 4,1 km/h (1 Bft) S-SW 199 0 min 0,000 mm 0,0 UV-I 0 W/m 17,5 C 18,7 C 6,4 km/h (2 Bft) 100,00 %
22.07.2016 03:52 18,7 C 93 % 1013,9 hPa 0,0 l/m 4,5 km/h (1 Bft) S-SW 194 0 min 0,000 mm 0,0 UV-I 0 W/m 17,5 C 18,7 C 6,4 km/h (2 Bft) 100,00 %
22.07.2016 03:54 18,7 C 93 % 1013,9 hPa 0,0 l/m 5,1 km/h (1 Bft) S 191 0 min 0,000 mm 0,0 UV-I 0 W/m 17,5 C 18,7 C 6,4 km/h (2 Bft) 100,00 %
22.07.2016 03:56 18,7 C 93 % 1013,9 hPa 0,0 l/m 5,5 km/h (1 Bft) S-SW 196 0 min 0,000 mm 0,0 UV-I 0 W/m 17,5 C 18,7 C 8,0 km/h (2 Bft) 100,00 %
22.07.2016 03:58 18,7 C 93 % 1013,9 hPa 0,0 l/m 6,7 km/h (2 Bft) S 187 0 min 0,000 mm 0,0 UV-I 0 W/m 17,5 C 18,6 C 9,7 km/h (2 Bft) 100,00 %
22.07.2016 04:00 18,7 C 93 % 1013,8 hPa 0,0 l/m 4,8 km/h (1 Bft) S-SW 196 0 min 0,000 mm 0,0 UV-I 0 W/m 17,5 C 18,7 C 8,0 km/h (2 Bft) 97,87 %
22.07.2016 04:02 18,7 C 93 % 1013,8 hPa 0,0 l/m 5,4 km/h (1 Bft) SW 217 0 min 0,000 mm 0,0 UV-I 0 W/m 17,5 C 18,7 C 8,0 km/h (2 Bft) 100,00 %
22.07.2016 04:04 18,7 C 93 % 1013,8 hPa 0,0 l/m 5,1 km/h (1 Bft) S 185 0 min 0,000 mm 0,0 UV-I 0 W/m 17,5 C 18,7 C 8,0 km/h (2 Bft) 100,00 %
22.07.2016 04:06 18,6 C 93 % 1013,8 hPa 0,0 l/m 7,9 km/h (2 Bft) S 188 0 min 0,000 mm 0,0 UV-I 0 W/m 17,4 C 17,9 C 11,3 km/h (2 Bft) 95,74 %
22.07.2016 04:08 18,6 C 94 % 1013,7 hPa 0,0 l/m 6,9 km/h (2 Bft) S-SO 153 0 min 0,000 mm 0,0 UV-I 0 W/m 17,6 C 18,4 C 9,7 km/h (2 Bft) 100,00 %
22.07.2016 04:10 18,6 C 94 % 1013,6 hPa 0,0 l/m 7,3 km/h (2 Bft) S-SO 167 0 min 0,000 mm 0,0 UV-I 0 W/m 17,6 C 18,2 C 11,3 km/h (2 Bft) 95,74 %
22.07.2016 04:12 18,6 C 94 % 1013,7 hPa 0,0 l/m 7,9 km/h (2 Bft) S-SW 204 0 min 0,000 mm 0,0 UV-I 0 W/m 17,6 C 17,9 C 12,9 km/h (3 Bft) 100,00 %
22.07.2016 04:14 18,6 C 94 % 1013,7 hPa 0,0 l/m 5,9 km/h (2 Bft) S-SW 213 0 min 0,000 mm 0,0 UV-I 0 W/m 17,6 C 18,6 C 8,0 km/h (2 Bft) 100,00 %
22.07.2016 04:16 18,7 C 94 % 1013,6 hPa 0,0 l/m 5,8 km/h (2 Bft) S-SW 205 0 min 0,000 mm 0,0 UV-I 0 W/m 17,7 C 18,7 C 11,3 km/h (2 Bft) 97,92 %
22.07.2016 04:18 18,7 C 94 % 1013,6 hPa 0,0 l/m 6,1 km/h (2 Bft) SW 228 0 min 0,000 mm 0,0 UV-I 0 W/m 17,7 C 18,7 C 11,3 km/h (2 Bft) 100,00 %
22.07.2016 04:20 18,7 C 93 % 1013,6 hPa 0,0 l/m 6,1 km/h (2 Bft) S-SW 205 0 min 0,000 mm 0,0 UV-I 0 W/m 17,5 C 18,7 C 11,3 km/h (2 Bft) 94,00 %
22.07.2016 04:22 18,7 C 93 % 1013,6 hPa 0,0 l/m 4,6 km/h (1 Bft) SW 221 0 min 0,000 mm 0,0 UV-I 0 W/m 17,5 C 18,7 C 9,7 km/h (2 Bft) 100,00 %
22.07.2016 04:24 18,7 C 93 % 1013,6 hPa 0,0 l/m 5,7 km/h (1 Bft) SW 227 0 min 0,000 mm 0,0 UV-I 0 W/m 17,5 C 18,7 C 8,0 km/h (2 Bft) 97,87 %
22.07.2016 04:26 18,7 C 93 % 1013,6 hPa 0,0 l/m 5,5 km/h (1 Bft) W-SW 252 0 min 0,000 mm 0,0 UV-I 0 W/m 17,5 C 18,7 C 8,0 km/h (2 Bft) 100,00 %
22.07.2016 04:28 18,8 C 93 % 1013,6 hPa 0,0 l/m 3,8 km/h (1 Bft) W-SW 250 0 min 0,000 mm 0,0 UV-I 0 W/m 17,6 C 18,8 C 4,8 km/h (1 Bft) 100,00 %
22.07.2016 04:30 18,8 C 93 % 1013,6 hPa 0,0 l/m 3,6 km/h (1 Bft) SW 232 0 min 0,000 mm 0,0 UV-I 0 W/m 17,6 C 18,8 C 6,4 km/h (2 Bft) 91,49 %
22.07.2016 04:32 18,7 C 93 % 1013,6 hPa 0,0 l/m 1,9 km/h (1 Bft) SW 233 0 min 0,000 mm 0,0 UV-I 0 W/m 17,5 C 18,7 C 3,2 km/h (1 Bft) 97,37 %
22.07.2016 04:34 18,7 C 93 % 1013,6 hPa 0,0 l/m 4,0 km/h (1 Bft) SW 225 0 min 0,000 mm 0,0 UV-I 0 W/m 17,5 C 18,7 C 6,4 km/h (2 Bft) 95,74 %
22.07.2016 04:36 18,7 C 93 % 1013,5 hPa 0,0 l/m 3,6 km/h (1 Bft) SW 221 0 min 0,000 mm 0,0 UV-I 0 W/m 17,5 C 18,7 C 4,8 km/h (1 Bft) 95,74 %
22.07.2016 04:38 18,7 C 93 % 1013,6 hPa 0,0 l/m 4,2 km/h (1 Bft) SW 219 0 min 0,000 mm 0,0 UV-I 0 W/m 17,5 C 18,7 C 6,4 km/h (2 Bft) 96,00 %
22.07.2016 04:40 18,7 C 93 % 1013,5 hPa 0,0 l/m 4,6 km/h (1 Bft) S-SW 196 0 min 0,000 mm 0,0 UV-I 0 W/m 17,5 C 18,7 C 8,0 km/h (2 Bft) 97,87 %
22.07.2016 04:42 18,7 C 93 % 1013,5 hPa 0,0 l/m 6,6 km/h (2 Bft) SW 221 0 min 0,000 mm 0,0 UV-I 0 W/m 17,5 C 18,6 C 11,3 km/h (2 Bft) 97,87 %
22.07.2016 04:44 18,7 C 93 % 1013,5 hPa 0,0 l/m 6,3 km/h (2 Bft) SW 216 0 min 0,000 mm 0,0 UV-I 0 W/m 17,5 C 18,7 C 8,0 km/h (2 Bft) 97,87 %
22.07.2016 04:46 18,7 C 93 % 1013,5 hPa 0,0 l/m 5,9 km/h (2 Bft) S 178 0 min 0,000 mm 0,0 UV-I 0 W/m 17,5 C 18,7 C 11,3 km/h (2 Bft) 97,87 %
22.07.2016 04:48 18,7 C 93 % 1013,5 hPa 0,0 l/m 5,8 km/h (2 Bft) SW 234 0 min 0,000 mm 0,0 UV-I 0 W/m 17,5 C 18,7 C 12,9 km/h (3 Bft) 97,87 %
22.07.2016 04:50 18,7 C 93 % 1013,5 hPa 0,0 l/m 6,4 km/h (2 Bft) SW 221 0 min 0,000 mm 0,0 UV-I 0 W/m 17,5 C 18,7 C 9,7 km/h (2 Bft) 94,34 %
22.07.2016 04:52 18,7 C 93 % 1013,5 hPa 0,0 l/m 7,5 km/h (2 Bft) SW 221 0 min 0,000 mm 0,0 UV-I 0 W/m 17,5 C 18,2 C 11,3 km/h (2 Bft) 97,14 %
22.07.2016 04:54 18,7 C 93 % 1013,5 hPa 0,0 l/m 8,1 km/h (2 Bft) SW 228 0 min 0,000 mm 0,0 UV-I 0 W/m 17,5 C 17,9 C 12,9 km/h (3 Bft) 95,83 %
22.07.2016 04:56 18,7 C 93 % 1013,5 hPa 0,0 l/m 7,9 km/h (2 Bft) SW 217 0 min 0,000 mm 0,0 UV-I 0 W/m 17,5 C 18,0 C 11,3 km/h (2 Bft) 97,87 %
22.07.2016 04:58 18,8 C 93 % 1013,5 hPa 0,0 l/m 8,7 km/h (2 Bft) SW 236 0 min 0,000 mm 0,0 UV-I 0 W/m 17,6 C 17,8 C 16,1 km/h (3 Bft) 95,74 %
22.07.2016 05:00 18,8 C 93 % 1013,4 hPa 0,0 l/m 7,3 km/h (2 Bft) SW 236 0 min 0,000 mm 0,0 UV-I 0 W/m 17,6 C 18,4 C 11,3 km/h (2 Bft) 97,87 %
22.07.2016 05:02 18,8 C 93 % 1013,4 hPa 0,0 l/m 7,8 km/h (2 Bft) SW 219 0 min 0,000 mm 0,0 UV-I 0 W/m 17,6 C 18,2 C 11,3 km/h (2 Bft) 100,00 %
22.07.2016 05:04 18,8 C 93 % 1013,4 hPa 0,0 l/m 5,6 km/h (1 Bft) SW 236 0 min 0,000 mm 0,0 UV-I 0 W/m 17,6 C 18,8 C 8,0 km/h (2 Bft) 97,87 %
22.07.2016 05:06 18,8 C 93 % 1013,4 hPa 0,0 l/m 5,2 km/h (1 Bft) SW 233 0 min 0,000 mm 0,0 UV-I 0 W/m 17,6 C 18,8 C 8,0 km/h (2 Bft) 97,87 %
22.07.2016 05:08 18,8 C 93 % 1013,4 hPa 0,0 l/m 7,4 km/h (2 Bft) W-SW 238 0 min 0,000 mm 0,0 UV-I 0 W/m 17,6 C 18,4 C 11,3 km/h (2 Bft) 95,74 %
22.07.2016 05:10 18,8 C 93 % 1013,4 hPa 0,0 l/m 6,5 km/h (2 Bft) SW 221 0 min 0,000 mm 0,0 UV-I 0 W/m 17,6 C 18,8 C 8,0 km/h (2 Bft) 97,87 %
22.07.2016 05:12 18,8 C 93 % 1013,4 hPa 0,0 l/m 5,8 km/h (2 Bft) W-SW 247 0 min 0,000 mm 0,0 UV-I 0 W/m 17,6 C 18,8 C 8,0 km/h (2 Bft) 100,00 %
22.07.2016 05:14 18,8 C 93 % 1013,4 hPa 0,0 l/m 5,3 km/h (1 Bft) SW 234 0 min 0,000 mm 0,0 UV-I 0 W/m 17,6 C 18,8 C 8,0 km/h (2 Bft) 100,00 %
22.07.2016 05:16 18,8 C 93 % 1013,5 hPa 0,0 l/m 5,3 km/h (1 Bft) SW 225 0 min 0,000 mm 0,0 UV-I 0 W/m 17,6 C 18,8 C 8,0 km/h (2 Bft) 100,00 %
22.07.2016 05:18 18,8 C 93 % 1013,5 hPa 0,0 l/m 4,5 km/h (1 Bft) SW 233 0 min 0,000 mm 0,0 UV-I 0 W/m 17,6 C 18,8 C 8,0 km/h (2 Bft) 100,00 %
22.07.2016 05:20 18,9 C 93 % 1013,5 hPa 0,0 l/m 4,2 km/h (1 Bft) SW 226 0 min 0,000 mm 0,0 UV-I 0 W/m 17,7 C 18,9 C 6,4 km/h (2 Bft) 100,00 %
22.07.2016 05:22 18,9 C 93 % 1013,5 hPa 0,0 l/m 3,0 km/h (1 Bft) W 271 0 min 0,000 mm 0,0 UV-I 0 W/m 17,7 C 18,9 C 4,8 km/h (1 Bft) 100,00 %
22.07.2016 05:24 18,9 C 92 % 1013,5 hPa 0,0 l/m 2,8 km/h (1 Bft) W-SW 256 0 min 0,000 mm 0,0 UV-I 0 W/m 17,6 C 18,9 C 4,8 km/h (1 Bft) 100,00 %
22.07.2016 05:26 18,9 C 93 % 1013,6 hPa 0,0 l/m 3,6 km/h (1 Bft) W-SW 248 0 min 0,000 mm 0,0 UV-I 0 W/m 17,7 C 18,9 C 6,4 km/h (2 Bft) 100,00 %
22.07.2016 05:28 18,9 C 92 % 1013,6 hPa 0,0 l/m 3,7 km/h (1 Bft) W-SW 250 0 min 0,000 mm 0,0 UV-I 0 W/m 17,6 C 18,9 C 6,4 km/h (2 Bft) 95,74 %
22.07.2016 05:30 18,9 C 92 % 1013,6 hPa 0,0 l/m 2,7 km/h (1 Bft) W-SW 251 0 min 0,000 mm 0,0 UV-I 0 W/m 17,6 C 18,9 C 4,8 km/h (1 Bft) 97,87 %
22.07.2016 05:32 18,9 C 93 % 1013,6 hPa 0,0 l/m 1,8 km/h (1 Bft) W-SW 251 0 min 0,000 mm 0,0 UV-I 4 W/m 17,7 C 18,9 C 3,2 km/h (1 Bft) 100,00 %
22.07.2016 05:34 18,9 C 92 % 1013,6 hPa 0,0 l/m 2,4 km/h (1 Bft) W-SW 251 0 min 0,000 mm 0,0 UV-I 5 W/m 17,6 C 18,9 C 4,8 km/h (1 Bft) 100,00 %
22.07.2016 05:36 18,9 C 93 % 1013,6 hPa 0,0 l/m 4,3 km/h (1 Bft) SW 226 0 min 0,000 mm 0,0 UV-I 5 W/m 17,7 C 18,9 C 6,4 km/h (2 Bft) 100,00 %
22.07.2016 05:38 18,9 C 92 % 1013,6 hPa 0,0 l/m 3,9 km/h (1 Bft) SW 220 0 min 0,000 mm 0,0 UV-I 6 W/m 17,6 C 18,9 C 6,4 km/h (2 Bft) 100,00 %
22.07.2016 05:40 18,9 C 92 % 1013,6 hPa 0,0 l/m 4,9 km/h (1 Bft) W-SW 252 0 min 0,000 mm 0,0 UV-I 7 W/m 17,6 C 18,9 C 6,4 km/h (2 Bft) 96,00 %
22.07.2016 05:42 18,9 C 92 % 1013,6 hPa 0,0 l/m 5,6 km/h (1 Bft) W-SW 248 0 min 0,000 mm 0,0 UV-I 7 W/m 17,6 C 18,9 C 9,7 km/h (2 Bft) 100,00 %
22.07.2016 05:44 18,9 C 92 % 1013,6 hPa 0,0 l/m 7,1 km/h (2 Bft) W 262 0 min 0,000 mm 0,0 UV-I 7 W/m 17,6 C 18,6 C 11,3 km/h (2 Bft) 100,00 %
22.07.2016 05:46 19,0 C 92 % 1013,6 hPa 0,0 l/m 7,5 km/h (2 Bft) W-SW 248 0 min 0,000 mm 0,0 UV-I 9 W/m 17,7 C 18,5 C 11,3 km/h (2 Bft) 98,00 %
22.07.2016 05:48 19,0 C 92 % 1013,6 hPa 0,0 l/m 6,7 km/h (2 Bft) SW 218 0 min 0,000 mm 0,0 UV-I 10 W/m 17,7 C 18,9 C 11,3 km/h (2 Bft) 97,87 %
22.07.2016 05:50 19,0 C 92 % 1013,6 hPa 0,0 l/m 5,7 km/h (1 Bft) W-SW 242 0 min 0,000 mm 0,0 UV-I 11 W/m 17,7 C 19,0 C 9,7 km/h (2 Bft) 100,00 %
22.07.2016 05:52 19,0 C 92 % 1013,6 hPa 0,0 l/m 4,2 km/h (1 Bft) W 275 0 min 0,000 mm 0,0 UV-I 12 W/m 17,7 C 19,0 C 6,4 km/h (2 Bft) 98,00 %
22.07.2016 05:54 19,1 C 92 % 1013,6 hPa 0,0 l/m 5,2 km/h (1 Bft) W 259 0 min 0,000 mm 0,0 UV-I 12 W/m 17,8 C 19,1 C 6,4 km/h (2 Bft) 100,00 %
22.07.2016 05:56 19,1 C 92 % 1013,7 hPa 0,0 l/m 4,9 km/h (1 Bft) SW 233 0 min 0,000 mm 0,0 UV-I 14 W/m 17,8 C 19,1 C 9,7 km/h (2 Bft) 100,00 %
22.07.2016 05:58 19,1 C 92 % 1013,6 hPa 0,0 l/m 5,1 km/h (1 Bft) W 265 0 min 0,000 mm 0,0 UV-I 16 W/m 17,8 C 19,1 C 8,0 km/h (2 Bft) 100,00 %
22.07.2016 06:00 19,1 C 92 % 1013,6 hPa 0,0 l/m 5,6 km/h (1 Bft) W-SW 238 0 min 0,000 mm 0,0 UV-I 18 W/m 17,8 C 19,1 C 8,0 km/h (2 Bft) 100,00 %
22.07.2016 06:02 19,1 C 92 % 1013,6 hPa 0,0 l/m 7,0 km/h (2 Bft) SW 233 0 min 0,000 mm 0,0 UV-I 22 W/m 17,8 C 18,8 C 9,7 km/h (2 Bft) 100,00 %
22.07.2016 06:04 19,1 C 92 % 1013,7 hPa 0,0 l/m 6,0 km/h (2 Bft) W-SW 252 0 min 0,000 mm 0,0 UV-I 26 W/m 17,8 C 19,1 C 9,7 km/h (2 Bft) 100,00 %
22.07.2016 06:06 19,1 C 92 % 1013,7 hPa 0,0 l/m 6,6 km/h (2 Bft) S-SW 208 0 min 0,000 mm 0,0 UV-I 30 W/m 17,8 C 19,0 C 11,3 km/h (2 Bft) 100,00 %
22.07.2016 06:08 19,1 C 92 % 1013,6 hPa 0,0 l/m 5,9 km/h (2 Bft) S-SW 213 0 min 0,000 mm 0,0 UV-I 34 W/m 17,8 C 19,1 C 9,7 km/h (2 Bft) 100,00 %
22.07.2016 06:10 19,1 C 92 % 1013,6 hPa 0,0 l/m 5,6 km/h (1 Bft) S-SW 207 0 min 0,000 mm 0,0 UV-I 35 W/m 17,8 C 19,1 C 9,7 km/h (2 Bft) 100,00 %
22.07.2016 06:12 19,1 C 92 % 1013,7 hPa 0,0 l/m 5,6 km/h (1 Bft) W-SW 242 0 min 0,000 mm 0,0 UV-I 38 W/m 17,8 C 19,1 C 8,0 km/h (2 Bft) 100,00 %
22.07.2016 06:14 19,1 C 92 % 1013,7 hPa 0,0 l/m 6,3 km/h (2 Bft) S-SW 213 0 min 0,000 mm 0,0 UV-I 40 W/m 17,8 C 19,1 C 8,0 km/h (2 Bft) 100,00 %
22.07.2016 06:16 19,1 C 92 % 1013,7 hPa 0,0 l/m 5,5 km/h (1 Bft) SW 221 0 min 0,000 mm 0,0 UV-I 44 W/m 17,8 C 19,1 C 8,0 km/h (2 Bft) 100,00 %
22.07.2016 06:18 19,1 C 92 % 1013,7 hPa 0,0 l/m 6,8 km/h (2 Bft) W 263 0 min 0,000 mm 0,0 UV-I 48 W/m 17,8 C 18,9 C 11,3 km/h (2 Bft) 100,00 %
22.07.2016 06:20 19,1 C 92 % 1013,8 hPa 0,0 l/m 8,8 km/h (2 Bft) W-SW 248 0 min 0,000 mm 0,0 UV-I 52 W/m 17,8 C 18,1 C 14,5 km/h (3 Bft) 100,00 %
22.07.2016 06:22 19,1 C 92 % 1013,8 hPa 0,0 l/m 6,9 km/h (2 Bft) SW 231 0 min 0,000 mm 0,0 UV-I 57 W/m 17,8 C 18,9 C 11,3 km/h (2 Bft) 97,87 %
22.07.2016 06:24 19,1 C 92 % 1013,9 hPa 0,0 l/m 8,2 km/h (2 Bft) SW 236 0 min 0,000 mm 0,0 UV-I 67 W/m 17,8 C 18,3 C 12,9 km/h (3 Bft) 97,87 %
22.07.2016 06:26 19,1 C 92 % 1013,8 hPa 0,0 l/m 10,7 km/h (2 Bft) W-SW 253 0 min 0,000 mm 0,0 UV-I 69 W/m 17,8 C 17,4 C 16,1 km/h (3 Bft) 97,87 %
22.07.2016 06:28 19,1 C 92 % 1013,9 hPa 0,0 l/m 11,5 km/h (2 Bft) W 275 0 min 0,000 mm 0,0 UV-I 59 W/m 17,8 C 17,1 C 16,1 km/h (3 Bft) 97,87 %
22.07.2016 06:30 19,2 C 92 % 1013,9 hPa 0,0 l/m 10,2 km/h (2 Bft) W-SW 256 0 min 0,000 mm 0,0 UV-I 51 W/m 17,9 C 17,7 C 16,1 km/h (3 Bft) 97,87 %
22.07.2016 06:32 19,2 C 92 % 1013,9 hPa 0,0 l/m 8,8 km/h (2 Bft) W-SW 247 0 min 0,000 mm 0,0 UV-I 48 W/m 17,9 C 18,2 C 12,9 km/h (3 Bft) 95,74 %
22.07.2016 06:34 19,2 C 92 % 1013,9 hPa 0,0 l/m 8,1 km/h (2 Bft) W-SW 243 0 min 0,000 mm 0,0 UV-I 48 W/m 17,9 C 18,5 C 12,9 km/h (3 Bft) 95,74 %
22.07.2016 06:36 19,2 C 92 % 1013,8 hPa 0,0 l/m 7,9 km/h (2 Bft) W-SW 254 0 min 0,000 mm 0,0 UV-I 51 W/m 17,9 C 18,6 C 12,9 km/h (3 Bft) 96,00 %
22.07.2016 06:38 19,2 C 92 % 1013,9 hPa 0,0 l/m 6,6 km/h (2 Bft) W 265 0 min 0,000 mm 0,0 UV-I 54 W/m 17,9 C 19,1 C 9,7 km/h (2 Bft) 95,74 %
22.07.2016 06:40 19,2 C 92 % 1013,9 hPa 0,0 l/m 8,8 km/h (2 Bft) W-SW 243 0 min 0,000 mm 0,0 UV-I 54 W/m 17,9 C 18,2 C 12,9 km/h (3 Bft) 97,87 %
22.07.2016 06:42 19,2 C 92 % 1013,9 hPa 0,0 l/m 6,5 km/h (2 Bft) W-SW 251 0 min 0,000 mm 0,0 UV-I 53 W/m 17,9 C 19,2 C 9,7 km/h (2 Bft) 95,74 %
22.07.2016 06:44 19,2 C 92 % 1013,9 hPa 0,0 l/m 7,2 km/h (2 Bft) W 263 0 min 0,000 mm 0,0 UV-I 55 W/m 17,9 C 18,9 C 11,3 km/h (2 Bft) 95,74 %
22.07.2016 06:46 19,2 C 92 % 1014,0 hPa 0,0 l/m 7,6 km/h (2 Bft) W-SW 252 0 min 0,000 mm 0,0 UV-I 62 W/m 17,9 C 18,7 C 14,5 km/h (3 Bft) 98,00 %
22.07.2016 06:48 19,2 C 92 % 1014,0 hPa 0,0 l/m 9,1 km/h (2 Bft) W-SW 254 0 min 0,000 mm 0,0 UV-I 63 W/m 17,9 C 18,1 C 14,5 km/h (3 Bft) 97,37 %
22.07.2016 06:50 19,2 C 92 % 1014,0 hPa 0,0 l/m 7,0 km/h (2 Bft) W 259 0 min 0,000 mm 0,0 UV-I 64 W/m 17,9 C 18,9 C 9,7 km/h (2 Bft) 97,87 %
22.07.2016 06:52 19,3 C 92 % 1014,1 hPa 0,0 l/m 6,4 km/h (2 Bft) W 266 0 min 0,000 mm 0,0 UV-I 64 W/m 18,0 C 19,3 C 11,3 km/h (2 Bft) 91,67 %
22.07.2016 06:54 19,2 C 92 % 1014,1 hPa 0,0 l/m 5,7 km/h (1 Bft) W-SW 255 0 min 0,000 mm 0,0 UV-I 60 W/m 17,9 C 19,2 C 9,7 km/h (2 Bft) 100,00 %
22.07.2016 06:56 19,3 C 92 % 1014,0 hPa 0,0 l/m 7,5 km/h (2 Bft) W-SW 250 0 min 0,000 mm 0,0 UV-I 54 W/m 18,0 C 18,8 C 12,9 km/h (3 Bft) 97,87 %
22.07.2016 06:58 19,3 C 92 % 1014,1 hPa 0,0 l/m 5,0 km/h (1 Bft) W 267 0 min 0,000 mm 0,0 UV-I 49 W/m 18,0 C 19,3 C 9,7 km/h (2 Bft) 98,00 %
22.07.2016 07:00 19,3 C 92 % 1014,1 hPa 0,0 l/m 4,0 km/h (1 Bft) W 279 0 min 0,025 mm 0,0 UV-I 49 W/m 18,0 C 19,3 C 6,4 km/h (2 Bft) 97,87 %
22.07.2016 07:02 19,3 C 92 % 1014,1 hPa 0,0 l/m 5,1 km/h (1 Bft) W-SW 251 0 min 0,000 mm 0,0 UV-I 48 W/m 18,0 C 19,3 C 9,7 km/h (2 Bft) 100,00 %
22.07.2016 07:04 19,3 C 92 % 1014,1 hPa 0,0 l/m 5,0 km/h (1 Bft) W-SW 254 0 min 0,000 mm 0,0 UV-I 45 W/m 18,0 C 19,3 C 11,3 km/h (2 Bft) 100,00 %
22.07.2016 07:06 19,3 C 91 % 1014,0 hPa 0,0 l/m 4,7 km/h (1 Bft) W 261 0 min 0,000 mm 0,0 UV-I 40 W/m 17,8 C 19,3 C 6,4 km/h (2 Bft) 97,87 %
22.07.2016 07:08 19,3 C 92 % 1014,1 hPa 0,0 l/m 5,4 km/h (1 Bft) W-SW 256 0 min 0,000 mm 0,0 UV-I 45 W/m 18,0 C 19,3 C 8,0 km/h (2 Bft) 100,00 %
22.07.2016 07:10 19,3 C 92 % 1014,1 hPa 0,0 l/m 5,2 km/h (1 Bft) W-SW 250 0 min 0,000 mm 0,0 UV-I 57 W/m 18,0 C 19,3 C 8,0 km/h (2 Bft) 95,74 %
22.07.2016 07:12 19,3 C 92 % 1014,1 hPa 0,0 l/m 9,8 km/h (2 Bft) W-SW 258 0 min 0,000 mm 0,0 UV-I 67 W/m 18,0 C 17,9 C 14,5 km/h (3 Bft) 100,00 %
22.07.2016 07:14 19,3 C 92 % 1014,1 hPa 0,0 l/m 5,3 km/h (1 Bft) W-SW 251 0 min 0,000 mm 0,0 UV-I 74 W/m 18,0 C 19,3 C 11,3 km/h (2 Bft) 100,00 %
22.07.2016 07:16 19,4 C 92 % 1014,1 hPa 0,0 l/m 3,1 km/h (1 Bft) W 259 0 min 0,000 mm 0,0 UV-I 77 W/m 18,1 C 19,4 C 6,4 km/h (2 Bft) 100,00 %
22.07.2016 07:18 19,4 C 92 % 1014,1 hPa 0,0 l/m 3,3 km/h (1 Bft) W 260 0 min 0,000 mm 0,0 UV-I 78 W/m 18,1 C 19,4 C 4,8 km/h (1 Bft) 97,87 %
22.07.2016 07:20 19,4 C 92 % 1014,2 hPa 0,0 l/m 2,0 km/h (1 Bft) W-SW 258 0 min 0,000 mm 0,0 UV-I 95 W/m 18,1 C 19,4 C 4,8 km/h (1 Bft) 100,00 %
22.07.2016 07:22 19,5 C 92 % 1014,2 hPa 0,0 l/m 3,3 km/h (1 Bft) W 263 0 min 0,000 mm 0,0 UV-I 97 W/m 18,2 C 19,5 C 4,8 km/h (1 Bft) 100,00 %
22.07.2016 07:24 19,6 C 91 % 1014,2 hPa 0,0 l/m 3,8 km/h (1 Bft) W-SW 256 0 min 0,000 mm 0,0 UV-I 75 W/m 18,1 C 19,6 C 6,4 km/h (2 Bft) 97,14 %
22.07.2016 07:26 19,6 C 91 % 1014,2 hPa 0,0 l/m 3,6 km/h (1 Bft) W 277 0 min 0,000 mm 0,0 UV-I 73 W/m 18,1 C 19,6 C 6,4 km/h (2 Bft) 97,87 %
22.07.2016 07:28 19,6 C 91 % 1014,2 hPa 0,0 l/m 1,9 km/h (1 Bft) W 277 0 min 0,000 mm 0,0 UV-I 85 W/m 18,1 C 19,6 C 4,8 km/h (1 Bft) 100,00 %
22.07.2016 07:30 19,6 C 91 % 1014,2 hPa 0,0 l/m 2,3 km/h (1 Bft) W-NW 294 0 min 0,000 mm 0,0 UV-I 96 W/m 18,1 C 19,6 C 6,4 km/h (2 Bft) 98,00 %
22.07.2016 07:32 19,7 C 92 % 1014,2 hPa 0,0 l/m 1,2 km/h (1 Bft) W-NW 284 0 min 0,000 mm 0,0 UV-I 102 W/m 18,4 C 19,7 C 3,2 km/h (1 Bft) 100,00 %
22.07.2016 07:34 19,7 C 91 % 1014,2 hPa 0,0 l/m 2,5 km/h (1 Bft) W-NW 289 0 min 0,000 mm 0,1 UV-I 117 W/m 18,2 C 19,7 C 4,8 km/h (1 Bft) 100,00 %
22.07.2016 07:36 19,7 C 91 % 1014,2 hPa 0,0 l/m 1,8 km/h (1 Bft) W-NW 288 0 min 0,000 mm 0,3 UV-I 148 W/m 18,2 C 19,7 C 3,2 km/h (1 Bft) 100,00 %
22.07.2016 07:38 19,7 C 91 % 1014,3 hPa 0,0 l/m 2,6 km/h (1 Bft) W 281 0 min 0,000 mm 0,0 UV-I 130 W/m 18,2 C 19,7 C 4,8 km/h (1 Bft) 100,00 %
22.07.2016 07:40 19,8 C 91 % 1014,3 hPa 0,0 l/m 3,0 km/h (1 Bft) W-NW 299 0 min 0,000 mm 0,0 UV-I 106 W/m 18,3 C 19,8 C 4,8 km/h (1 Bft) 100,00 %
22.07.2016 07:42 19,8 C 91 % 1014,3 hPa 0,0 l/m 0,6 km/h (0 Bft) W-NW 299 0 min 0,000 mm 0,0 UV-I 108 W/m 18,3 C 19,8 C 3,2 km/h (1 Bft) 97,87 %
22.07.2016 07:44 19,8 C 91 % 1014,4 hPa 0,0 l/m 0,4 km/h (0 Bft) W-NW 299 0 min 0,000 mm 0,0 UV-I 109 W/m 18,3 C 19,8 C 3,2 km/h (1 Bft) 100,00 %
22.07.2016 07:46 19,9 C 91 % 1014,4 hPa 0,0 l/m 1,6 km/h (1 Bft) NW 307 0 min 0,000 mm 0,0 UV-I 97 W/m 18,4 C 19,9 C 4,8 km/h (1 Bft) 97,87 %
22.07.2016 07:48 19,9 C 91 % 1014,5 hPa 0,0 l/m 1,6 km/h (1 Bft) W-NW 292 0 min 0,000 mm 0,0 UV-I 85 W/m 18,4 C 19,9 C 4,8 km/h (1 Bft) 100,00 %
22.07.2016 07:50 19,9 C 91 % 1014,4 hPa 0,0 l/m 1,7 km/h (1 Bft) W-NW 292 0 min 0,000 mm 0,0 UV-I 72 W/m 18,4 C 19,9 C 4,8 km/h (1 Bft) 100,00 %
22.07.2016 07:52 19,8 C 91 % 1014,5 hPa 0,0 l/m 1,2 km/h (1 Bft) SW 220 0 min 0,000 mm 0,0 UV-I 63 W/m 18,3 C 19,8 C 3,2 km/h (1 Bft) 97,92 %
22.07.2016 07:54 19,8 C 91 % 1014,5 hPa 0,0 l/m 1,9 km/h (1 Bft) N-NW 336 0 min 0,000 mm 0,0 UV-I 64 W/m 18,3 C 19,8 C 4,8 km/h (1 Bft) 97,87 %
22.07.2016 07:56 19,8 C 91 % 1014,5 hPa 0,0 l/m 1,6 km/h (1 Bft) W 281 0 min 0,000 mm 0,0 UV-I 68 W/m 18,3 C 19,8 C 4,8 km/h (1 Bft) 100,00 %
22.07.2016 07:58 19,8 C 91 % 1014,5 hPa 0,0 l/m 0,4 km/h (0 Bft) W 281 0 min 0,000 mm 0,0 UV-I 64 W/m 18,3 C 19,8 C 3,2 km/h (1 Bft) 100,00 %
22.07.2016 08:00 19,8 C 91 % 1014,5 hPa 0,0 l/m 0,7 km/h (0 Bft) W 281 0 min 0,051 mm 0,0 UV-I 71 W/m 18,3 C 19,8 C 1,6 km/h (1 Bft) 100,00 %
22.07.2016 08:02 19,8 C 91 % 1014,5 hPa 0,0 l/m 3,8 km/h (1 Bft) W-SW 255 0 min 0,000 mm 0,0 UV-I 83 W/m 18,3 C 19,8 C 6,4 km/h (2 Bft) 96,08 %
22.07.2016 08:04 19,8 C 91 % 1014,5 hPa 0,0 l/m 4,7 km/h (1 Bft) NW 308 0 min 0,000 mm 0,0 UV-I 96 W/m 18,3 C 19,8 C 6,4 km/h (2 Bft) 95,74 %
22.07.2016 08:06 19,8 C 91 % 1014,6 hPa 0,0 l/m 3,0 km/h (1 Bft) W 262 0 min 0,000 mm 0,0 UV-I 87 W/m 18,3 C 19,8 C 4,8 km/h (1 Bft) 97,87 %
22.07.2016 08:08 19,9 C 91 % 1014,6 hPa 0,0 l/m 2,1 km/h (1 Bft) W-SW 247 0 min 0,000 mm 0,0 UV-I 88 W/m 18,4 C 19,9 C 4,8 km/h (1 Bft) 100,00 %
22.07.2016 08:10 19,9 C 91 % 1014,6 hPa 0,0 l/m 1,8 km/h (1 Bft) W 267 0 min 0,000 mm 0,0 UV-I 90 W/m 18,4 C 19,9 C 3,2 km/h (1 Bft) 100,00 %
22.07.2016 08:12 19,9 C 91 % 1014,6 hPa 0,0 l/m 3,0 km/h (1 Bft) W 259 0 min 0,000 mm 0,2 UV-I 95 W/m 18,4 C 19,9 C 6,4 km/h (2 Bft) 100,00 %
22.07.2016 08:14 19,9 C 91 % 1014,7 hPa 0,0 l/m 4,1 km/h (1 Bft) W 280 0 min 0,000 mm 0,2 UV-I 88 W/m 18,4 C 19,9 C 6,4 km/h (2 Bft) 100,00 %
22.07.2016 08:16 19,9 C 91 % 1014,7 hPa 0,0 l/m 3,0 km/h (1 Bft) W 269 0 min 0,000 mm 0,0 UV-I 89 W/m 18,4 C 19,9 C 6,4 km/h (2 Bft) 100,00 %
22.07.2016 08:18 19,9 C 91 % 1014,7 hPa 0,0 l/m 1,1 km/h (1 Bft) W 276 0 min 0,000 mm 0,0 UV-I 96 W/m 18,4 C 19,9 C 3,2 km/h (1 Bft) 93,62 %
22.07.2016 08:20 19,9 C 91 % 1014,6 hPa 0,0 l/m 3,7 km/h (1 Bft) SW 225 0 min 0,000 mm 0,3 UV-I 104 W/m 18,4 C 19,9 C 8,0 km/h (2 Bft) 97,87 %
22.07.2016 08:22 19,9 C 91 % 1014,7 hPa 0,0 l/m 0,8 km/h (0 Bft) NW 314 0 min 0,000 mm 0,6 UV-I 128 W/m 18,4 C 19,9 C 3,2 km/h (1 Bft) 94,23 %
22.07.2016 08:24 20,0 C 90 % 1014,7 hPa 0,0 l/m 5,0 km/h (1 Bft) W-SW 253 0 min 0,000 mm 0,7 UV-I 174 W/m 18,3 C 20,0 C 12,9 km/h (3 Bft) 95,74 %
22.07.2016 08:26 19,9 C 90 % 1014,7 hPa 0,0 l/m 4,9 km/h (1 Bft) W-SW 246 0 min 0,000 mm 0,8 UV-I 219 W/m 18,2 C 19,9 C 9,7 km/h (2 Bft) 95,74 %
22.07.2016 08:28 19,9 C 90 % 1014,7 hPa 0,0 l/m 4,6 km/h (1 Bft) W 281 0 min 0,000 mm 0,8 UV-I 245 W/m 18,2 C 19,9 C 9,7 km/h (2 Bft) 97,87 %
22.07.2016 08:30 20,1 C 90 % 1014,7 hPa 0,0 l/m 3,7 km/h (1 Bft) W-SW 240 0 min 0,000 mm 0,8 UV-I 225 W/m 18,4 C 20,1 C 8,0 km/h (2 Bft) 95,65 %
22.07.2016 08:32 20,2 C 90 % 1014,7 hPa 0,0 l/m 5,2 km/h (1 Bft) W-NW 298 0 min 0,000 mm 0,9 UV-I 239 W/m 18,5 C 20,2 C 9,7 km/h (2 Bft) 98,41 %
22.07.2016 08:34 20,2 C 89 % 1014,7 hPa 0,0 l/m 3,7 km/h (1 Bft) W-SW 257 0 min 0,000 mm 1,0 UV-I 255 W/m 18,3 C 20,2 C 6,4 km/h (2 Bft) 93,62 %
22.07.2016 08:36 20,3 C 89 % 1014,7 hPa 0,0 l/m 2,4 km/h (1 Bft) S 177 2 min 0,000 mm 1,1 UV-I 300 W/m 18,4 C 20,3 C 6,4 km/h (2 Bft) 95,74 %
22.07.2016 08:38 20,4 C 89 % 1014,6 hPa 0,0 l/m 4,7 km/h (1 Bft) W 273 2 min 0,000 mm 1,0 UV-I 271 W/m 18,5 C 20,4 C 12,9 km/h (3 Bft) 95,74 %
22.07.2016 08:40 20,4 C 87 % 1014,6 hPa 0,0 l/m 7,1 km/h (2 Bft) W-SW 241 0 min 0,000 mm 1,0 UV-I 238 W/m 18,2 C 20,1 C 12,9 km/h (3 Bft) 97,87 %
22.07.2016 08:42 20,4 C 88 % 1014,6 hPa 0,0 l/m 5,9 km/h (2 Bft) W-NW 295 0 min 0,000 mm 1,2 UV-I 240 W/m 18,3 C 20,4 C 11,3 km/h (2 Bft) 97,87 %
22.07.2016 08:44 20,4 C 88 % 1014,6 hPa 0,0 l/m 5,7 km/h (1 Bft) W 264 0 min 0,000 mm 1,4 UV-I 250 W/m 18,3 C 20,4 C 12,9 km/h (3 Bft) 98,11 %
22.07.2016 08:46 20,5 C 88 % 1014,6 hPa 0,0 l/m 2,0 km/h (1 Bft) N-NW 346 0 min 0,000 mm 1,5 UV-I 263 W/m 18,4 C 20,5 C 4,8 km/h (1 Bft) 97,87 %
22.07.2016 08:48 20,6 C 88 % 1014,6 hPa 0,0 l/m 1,8 km/h (1 Bft) NW 325 2 min 0,000 mm 1,6 UV-I 364 W/m 18,5 C 20,6 C 4,8 km/h (1 Bft) 97,87 %
22.07.2016 08:50 20,8 C 88 % 1014,6 hPa 0,0 l/m 3,7 km/h (1 Bft) W-NW 294 2 min 0,000 mm 1,5 UV-I 452 W/m 18,7 C 20,8 C 8,0 km/h (2 Bft) 95,74 %
22.07.2016 08:52 20,8 C 86 % 1014,5 hPa 0,0 l/m 3,6 km/h (1 Bft) NO 37 2 min 0,000 mm 1,5 UV-I 295 W/m 18,4 C 20,8 C 12,9 km/h (3 Bft) 97,87 %
22.07.2016 08:54 20,9 C 86 % 1014,5 hPa 0,0 l/m 5,2 km/h (1 Bft) N 5 2 min 0,000 mm 1,7 UV-I 352 W/m 18,5 C 20,9 C 11,3 km/h (2 Bft) 95,92 %
22.07.2016 08:56 21,0 C 86 % 1014,5 hPa 0,0 l/m 2,8 km/h (1 Bft) N-NO 17 2 min 0,000 mm 1,8 UV-I 398 W/m 18,6 C 21,0 C 8,0 km/h (2 Bft) 100,00 %
22.07.2016 08:58 21,2 C 86 % 1014,6 hPa 0,0 l/m 4,2 km/h (1 Bft) N 355 2 min 0,000 mm 1,9 UV-I 471 W/m 18,8 C 21,2 C 9,7 km/h (2 Bft) 97,78 %
22.07.2016 09:00 21,3 C 86 % 1014,6 hPa 0,0 l/m 3,2 km/h (1 Bft) N-NW 337 2 min 0,152 mm 1,9 UV-I 484 W/m 18,9 C 21,3 C 9,7 km/h (2 Bft) 97,37 %
22.07.2016 09:06 21,3 C 83 % 1014,6 hPa 0,0 l/m 3,8 km/h (1 Bft) N-NO 13 0 min 0,001 mm 1,7 UV-I 253 W/m 18,3 C 21,3 C 9,7 km/h (2 Bft) 100,00 %
22.07.2016 09:10 21,1 C 84 % 1014,5 hPa 0,0 l/m 3,0 km/h (1 Bft) N-NW 342 0 min 0,000 mm 1,7 UV-I 245 W/m 18,3 C 21,1 C 4,8 km/h (1 Bft) 100,00 %
22.07.2016 09:12 21,1 C 84 % 1014,5 hPa 0,0 l/m 3,6 km/h (1 Bft) NW 324 2 min 0,000 mm 2,2 UV-I 453 W/m 18,3 C 21,1 C 6,4 km/h (2 Bft) 98,00 %
22.07.2016 09:14 21,3 C 84 % 1014,5 hPa 0,0 l/m 4,1 km/h (1 Bft) NW 307 2 min 0,000 mm 2,2 UV-I 490 W/m 18,5 C 21,3 C 11,3 km/h (2 Bft) 100,00 %
22.07.2016 09:16 21,4 C 84 % 1014,5 hPa 0,0 l/m 4,9 km/h (1 Bft) SW 230 2 min 0,000 mm 2,1 UV-I 464 W/m 18,6 C 21,4 C 6,4 km/h (2 Bft) 100,00 %
22.07.2016 09:18 21,4 C 83 % 1014,5 hPa 0,0 l/m 3,2 km/h (1 Bft) W 265 0 min 0,000 mm 1,9 UV-I 270 W/m 18,4 C 21,4 C 6,4 km/h (2 Bft) 100,00 %
22.07.2016 09:20 21,4 C 83 % 1014,6 hPa 0,0 l/m 2,6 km/h (1 Bft) N-NO 15 0 min 0,000 mm 2,1 UV-I 237 W/m 18,4 C 21,4 C 6,4 km/h (2 Bft) 100,00 %
22.07.2016 09:22 21,5 C 83 % 1014,5 hPa 0,0 l/m 2,3 km/h (1 Bft) N 5 2 min 0,000 mm 2,4 UV-I 479 W/m 18,5 C 21,5 C 4,8 km/h (1 Bft) 100,00 %
22.07.2016 09:24 21,6 C 82 % 1014,6 hPa 0,0 l/m 4,0 km/h (1 Bft) N 9 2 min 0,000 mm 2,4 UV-I 480 W/m 18,4 C 21,6 C 11,3 km/h (2 Bft) 100,00 %
22.07.2016 09:26 21,7 C 84 % 1014,6 hPa 0,0 l/m 1,7 km/h (1 Bft) W-NW 290 2 min 0,000 mm 2,5 UV-I 494 W/m 18,9 C 21,7 C 3,2 km/h (1 Bft) 98,00 %
22.07.2016 09:28 21,7 C 81 % 1014,6 hPa 0,0 l/m 3,8 km/h (1 Bft) SW 215 2 min 0,000 mm 2,3 UV-I 525 W/m 18,3 C 21,7 C 6,4 km/h (2 Bft) 100,00 %
22.07.2016 09:30 21,7 C 83 % 1014,5 hPa 0,0 l/m 2,5 km/h (1 Bft) W-SW 254 0 min 0,000 mm 2,0 UV-I 330 W/m 18,7 C 21,7 C 6,4 km/h (2 Bft) 100,00 %
22.07.2016 09:32 21,7 C 82 % 1014,6 hPa 0,0 l/m 2,5 km/h (1 Bft) W-NW 300 0 min 0,000 mm 1,9 UV-I 240 W/m 18,5 C 21,7 C 4,8 km/h (1 Bft) 100,00 %
22.07.2016 09:34 21,7 C 83 % 1014,6 hPa 0,0 l/m 1,7 km/h (1 Bft) W-NW 282 0 min 0,000 mm 2,1 UV-I 249 W/m 18,7 C 21,7 C 4,8 km/h (1 Bft) 100,00 %
22.07.2016 09:35 21,7 C 82 % 1014,6 hPa 0,0 l/m 1,6 km/h (1 Bft) W-NW 292 0 min 0,000 mm 2,1 UV-I 233 W/m 18,5 C 21,7 C 6,4 km/h (2 Bft) 100,00 %
22.07.2016 09:40 21,7 C 81 % 1014,5 hPa 0,0 l/m 3,2 km/h (1 Bft) NW 315 0 min 0,000 mm 2,1 UV-I 286 W/m 18,3 C 21,7 C 11,3 km/h (2 Bft) 100,00 %
22.07.2016 09:44 21,7 C 81 % 1014,6 hPa 0,0 l/m 2,4 km/h (1 Bft) W-NW 295 0 min 0,000 mm 1,9 UV-I 303 W/m 18,3 C 21,7 C 3,2 km/h (1 Bft) 100,00 %
22.07.2016 09:46 21,7 C 82 % 1014,6 hPa 0,0 l/m 0,5 km/h (0 Bft) W-NW 295 0 min 0,000 mm 1,9 UV-I 326 W/m 18,5 C 21,7 C 3,2 km/h (1 Bft) 100,00 %
22.07.2016 09:48 21,6 C 81 % 1014,5 hPa 0,0 l/m 1,6 km/h (1 Bft) N 5 0 min 0,000 mm 1,6 UV-I 287 W/m 18,2 C 21,6 C 3,2 km/h (1 Bft) 95,12 %
22.07.2016 09:50 21,6 C 82 % 1014,5 hPa 0,0 l/m 1,2 km/h (1 Bft) O 88 0 min 0,000 mm 1,5 UV-I 260 W/m 18,4 C 21,6 C 3,2 km/h (1 Bft) 100,00 %
22.07.2016 09:52 21,7 C 83 % 1014,5 hPa 0,0 l/m 3,9 km/h (1 Bft) W-NW 286 0 min 0,000 mm 1,5 UV-I 240 W/m 18,7 C 21,7 C 11,3 km/h (2 Bft) 100,00 %
22.07.2016 09:54 21,7 C 81 % 1014,6 hPa 0,0 l/m 4,9 km/h (1 Bft) W 275 0 min 0,000 mm 1,6 UV-I 240 W/m 18,3 C 21,7 C 9,7 km/h (2 Bft) 100,00 %
22.07.2016 09:56 21,7 C 81 % 1014,5 hPa 0,0 l/m 0,9 km/h (0 Bft) W 278 0 min 0,000 mm 1,8 UV-I 249 W/m 18,3 C 21,7 C 3,2 km/h (1 Bft) 96,49 %
22.07.2016 09:58 21,7 C 83 % 1014,6 hPa 0,0 l/m 3,8 km/h (1 Bft) W-SW 247 0 min 0,000 mm 1,9 UV-I 255 W/m 18,7 C 21,7 C 9,7 km/h (2 Bft) 100,00 %
22.07.2016 10:00 21,8 C 81 % 1014,5 hPa 0,0 l/m 2,4 km/h (1 Bft) W-SW 241 0 min 0,203 mm 1,9 UV-I 251 W/m 18,4 C 21,8 C 4,8 km/h (1 Bft) 100,00 %
22.07.2016 10:02 21,7 C 82 % 1014,5 hPa 0,0 l/m 1,3 km/h (1 Bft) N-NW 330 0 min 0,000 mm 1,9 UV-I 187 W/m 18,5 C 21,7 C 3,2 km/h (1 Bft) 100,00 %
22.07.2016 10:04 21,7 C 81 % 1014,5 hPa 0,0 l/m 4,0 km/h (1 Bft) W-NW 298 0 min 0,000 mm 2,0 UV-I 163 W/m 18,3 C 21,7 C 6,4 km/h (2 Bft) 100,00 %
22.07.2016 10:06 21,6 C 82 % 1014,5 hPa 0,0 l/m 2,6 km/h (1 Bft) W 281 0 min 0,000 mm 2,2 UV-I 176 W/m 18,4 C 21,6 C 4,8 km/h (1 Bft) 100,00 %
22.07.2016 10:08 21,4 C 82 % 1014,5 hPa 0,0 l/m 2,7 km/h (1 Bft) NW 325 0 min 0,000 mm 2,9 UV-I 235 W/m 18,2 C 21,4 C 6,4 km/h (2 Bft) 100,00 %
22.07.2016 10:10 21,7 C 82 % 1014,5 hPa 0,0 l/m 3,7 km/h (1 Bft) NW 321 2 min 0,000 mm 3,6 UV-I 663 W/m 18,5 C 21,7 C 8,0 km/h (2 Bft) 100,00 %
22.07.2016 10:12 21,8 C 81 % 1014,5 hPa 0,0 l/m 1,8 km/h (1 Bft) N 355 2 min 0,000 mm 3,7 UV-I 696 W/m 18,4 C 21,8 C 4,8 km/h (1 Bft) 100,00 %
22.07.2016 10:14 21,9 C 79 % 1014,5 hPa 0,0 l/m 2,7 km/h (1 Bft) O-NO 76 2 min 0,000 mm 3,7 UV-I 681 W/m 18,1 C 21,9 C 4,8 km/h (1 Bft) 100,00 %
22.07.2016 10:16 22,1 C 82 % 1014,5 hPa 0,0 l/m 2,0 km/h (1 Bft) N-NO 19 2 min 0,000 mm 3,8 UV-I 721 W/m 18,9 C 22,1 C 3,2 km/h (1 Bft) 98,00 %
22.07.2016 10:18 22,3 C 80 % 1014,5 hPa 0,0 l/m 1,6 km/h (1 Bft) N-NO 18 2 min 0,000 mm 4,0 UV-I 782 W/m 18,7 C 22,3 C 3,2 km/h (1 Bft) 94,34 %
22.07.2016 10:20 22,8 C 78 % 1014,5 hPa 0,0 l/m 4,4 km/h (1 Bft) N-NW 345 2 min 0,000 mm 4,0 UV-I 828 W/m 18,8 C 22,8 C 8,0 km/h (2 Bft) 95,74 %
22.07.2016 10:22 22,8 C 78 % 1014,5 hPa 0,0 l/m 3,1 km/h (1 Bft) W-NW 301 2 min 0,000 mm 3,3 UV-I 728 W/m 18,8 C 22,8 C 6,4 km/h (2 Bft) 97,37 %
22.07.2016 10:24 22,6 C 78 % 1014,5 hPa 0,0 l/m 2,3 km/h (1 Bft) NW 312 0 min 0,000 mm 3,0 UV-I 359 W/m 18,6 C 22,6 C 4,8 km/h (1 Bft) 97,87 %
22.07.2016 10:25 22,6 C 79 % 1014,5 hPa 0,0 l/m 3,2 km/h (1 Bft) W-NW 292 0 min 0,000 mm 3,2 UV-I 361 W/m 18,8 C 22,6 C 6,4 km/h (2 Bft) 100,00 %
22.07.2016 10:30 23,0 C 76 % 1014,4 hPa 0,0 l/m 3,8 km/h (1 Bft) N-NW 329 5 min 0,000 mm 3,1 UV-I 815 W/m 18,5 C 23,0 C 8,0 km/h (2 Bft) 96,72 %
22.07.2016 10:32 22,9 C 76 % 1014,4 hPa 0,0 l/m 4,5 km/h (1 Bft) N 355 0 min 0,000 mm 2,0 UV-I 269 W/m 18,4 C 22,9 C 9,7 km/h (2 Bft) 97,37 %
22.07.2016 10:34 22,6 C 77 % 1014,4 hPa 0,0 l/m 3,1 km/h (1 Bft) NW 317 0 min 0,000 mm 1,8 UV-I 194 W/m 18,4 C 22,6 C 8,0 km/h (2 Bft) 98,00 %
22.07.2016 10:36 22,4 C 78 % 1014,4 hPa 0,0 l/m 4,3 km/h (1 Bft) W-NW 293 0 min 0,000 mm 1,7 UV-I 188 W/m 18,4 C 22,4 C 6,4 km/h (2 Bft) 94,64 %
22.07.2016 10:38 22,2 C 78 % 1014,5 hPa 0,0 l/m 2,3 km/h (1 Bft) W-NW 296 0 min 0,000 mm 1,7 UV-I 180 W/m 18,2 C 22,2 C 6,4 km/h (2 Bft) 97,87 %
22.07.2016 10:40 22,1 C 78 % 1014,5 hPa 0,0 l/m 1,2 km/h (1 Bft) W-NW 294 0 min 0,000 mm 1,5 UV-I 163 W/m 18,1 C 22,1 C 3,2 km/h (1 Bft) 95,74 %
22.07.2016 10:42 21,9 C 79 % 1014,5 hPa 0,0 l/m 0,5 km/h (0 Bft) N 5 0 min 0,000 mm 1,5 UV-I 151 W/m 18,1 C 21,9 C 4,8 km/h (1 Bft) 97,87 %
22.07.2016 10:44 21,9 C 80 % 1014,4 hPa 0,0 l/m 3,4 km/h (1 Bft) N 355 0 min 0,000 mm 1,6 UV-I 160 W/m 18,3 C 21,9 C 4,8 km/h (1 Bft) 94,44 %
22.07.2016 10:46 22,0 C 80 % 1014,4 hPa 0,0 l/m 1,2 km/h (1 Bft) NW 317 0 min 0,000 mm 1,9 UV-I 181 W/m 18,4 C 22,0 C 3,2 km/h (1 Bft) 98,21 %
22.07.2016 10:48 22,1 C 80 % 1014,4 hPa 0,0 l/m 2,1 km/h (1 Bft) N-NO 14 0 min 0,000 mm 2,0 UV-I 186 W/m 18,5 C 22,1 C 6,4 km/h (2 Bft) 97,56 %
22.07.2016 10:50 22,1 C 79 % 1014,4 hPa 0,0 l/m 4,1 km/h (1 Bft) N-NO 22 0 min 0,000 mm 2,1 UV-I 184 W/m 18,3 C 22,1 C 8,0 km/h (2 Bft) 98,00 %
22.07.2016 10:52 22,1 C 80 % 1014,4 hPa 0,0 l/m 2,1 km/h (1 Bft) N-NO 15 0 min 0,000 mm 2,3 UV-I 185 W/m 18,5 C 22,1 C 4,8 km/h (1 Bft) 97,78 %
22.07.2016 10:54 22,1 C 80 % 1014,4 hPa 0,0 l/m 1,2 km/h (1 Bft) N-NW 341 0 min 0,000 mm 2,6 UV-I 223 W/m 18,5 C 22,1 C 3,2 km/h (1 Bft) 98,00 %
22.07.2016 10:56 22,2 C 80 % 1014,4 hPa 0,0 l/m 2,3 km/h (1 Bft) N-NW 338 0 min 0,000 mm 3,5 UV-I 244 W/m 18,6 C 22,2 C 6,4 km/h (2 Bft) 100,00 %
22.07.2016 10:58 22,3 C 79 % 1014,4 hPa 0,0 l/m 1,2 km/h (1 Bft) N-NW 344 0 min 0,000 mm 3,3 UV-I 261 W/m 18,5 C 22,3 C 4,8 km/h (1 Bft) 97,87 %
22.07.2016 11:00 22,4 C 80 % 1014,5 hPa 0,0 l/m 2,6 km/h (1 Bft) N-NW 327 2 min 0,228 mm 3,8 UV-I 441 W/m 18,8 C 22,4 C 4,8 km/h (1 Bft) 100,00 %
22.07.2016 11:02 22,7 C 79 % 1014,4 hPa 0,0 l/m 3,2 km/h (1 Bft) N-NW 327 2 min 0,000 mm 4,8 UV-I 753 W/m 18,9 C 22,7 C 8,0 km/h (2 Bft) 100,00 %
22.07.2016 11:04 23,0 C 78 % 1014,4 hPa 0,0 l/m 3,2 km/h (1 Bft) NW 305 2 min 0,000 mm 4,8 UV-I 745 W/m 18,9 C 23,0 C 4,8 km/h (1 Bft) 97,56 %
22.07.2016 11:06 23,1 C 79 % 1014,3 hPa 0,0 l/m 4,1 km/h (1 Bft) N-NO 27 2 min 0,000 mm 5,0 UV-I 741 W/m 19,3 C 23,1 C 9,7 km/h (2 Bft) 100,00 %
22.07.2016 11:08 23,3 C 76 % 1014,3 hPa 0,0 l/m 4,0 km/h (1 Bft) N-NO 24 2 min 0,000 mm 5,1 UV-I 789 W/m 18,8 C 23,3 C 12,9 km/h (3 Bft) 98,00 %
22.07.2016 11:10 23,7 C 76 % 1014,3 hPa 0,0 l/m 3,9 km/h (1 Bft) W-NW 298 2 min 0,000 mm 5,2 UV-I 798 W/m 19,2 C 23,7 C 9,7 km/h (2 Bft) 100,00 %
22.07.2016 11:12 23,9 C 75 % 1014,3 hPa 0,0 l/m 4,3 km/h (1 Bft) N-NW 330 2 min 0,000 mm 5,2 UV-I 811 W/m 19,2 C 23,9 C 9,7 km/h (2 Bft) 100,00 %
22.07.2016 11:14 24,2 C 77 % 1014,3 hPa 0,0 l/m 2,8 km/h (1 Bft) N 350 2 min 0,000 mm 5,2 UV-I 823 W/m 19,9 C 24,2 C 4,8 km/h (1 Bft) 100,00 %
22.07.2016 11:16 24,2 C 71 % 1014,3 hPa 0,0 l/m 1,9 km/h (1 Bft) N-NO 32 2 min 0,000 mm 5,2 UV-I 848 W/m 18,6 C 24,2 C 8,0 km/h (2 Bft) 100,00 %
22.07.2016 11:18 24,1 C 72 % 1014,3 hPa 0,0 l/m 5,2 km/h (1 Bft) NO 44 2 min 0,000 mm 5,5 UV-I 845 W/m 18,7 C 24,1 C 9,7 km/h (2 Bft) 100,00 %
22.07.2016 11:20 24,1 C 77 % 1014,3 hPa 0,0 l/m 5,8 km/h (2 Bft) O-NO 65 2 min 0,000 mm 5,0 UV-I 970 W/m 19,8 C 24,1 C 8,0 km/h (2 Bft) 100,00 %
22.07.2016 11:22 24,1 C 72 % 1014,3 hPa 0,0 l/m 3,6 km/h (1 Bft) O-NO 71 2 min 0,000 mm 4,4 UV-I 831 W/m 18,7 C 24,1 C 6,4 km/h (2 Bft) 100,00 %
22.07.2016 11:24 23,8 C 73 % 1014,3 hPa 0,0 l/m 1,2 km/h (1 Bft) O-NO 71 0 min 0,000 mm 3,4 UV-I 388 W/m 18,7 C 23,8 C 4,8 km/h (1 Bft) 100,00 %
22.07.2016 11:26 23,6 C 74 % 1014,3 hPa 0,0 l/m 2,9 km/h (1 Bft) O-NO 59 0 min 0,000 mm 3,5 UV-I 378 W/m 18,7 C 23,6 C 4,8 km/h (1 Bft) 100,00 %
22.07.2016 11:28 23,6 C 76 % 1014,3 hPa 0,0 l/m 2,8 km/h (1 Bft) O-NO 59 0 min 0,000 mm 3,4 UV-I 361 W/m 19,1 C 23,6 C 3,2 km/h (1 Bft) 100,00 %
22.07.2016 11:30 23,6 C 75 % 1014,3 hPa 0,0 l/m 1,5 km/h (1 Bft) N 355 0 min 0,000 mm 3,3 UV-I 358 W/m 18,9 C 23,6 C 3,2 km/h (1 Bft) 97,37 %
22.07.2016 11:32 23,4 C 73 % 1014,2 hPa 0,0 l/m 2,5 km/h (1 Bft) N-NO 20 0 min 0,000 mm 3,1 UV-I 356 W/m 18,3 C 23,4 C 4,8 km/h (1 Bft) 98,31 %
22.07.2016 11:34 23,4 C 74 % 1014,2 hPa 0,0 l/m 1,8 km/h (1 Bft) N-NO 21 0 min 0,000 mm 3,2 UV-I 382 W/m 18,5 C 23,4 C 3,2 km/h (1 Bft) 100,00 %
22.07.2016 11:36 23,6 C 74 % 1014,2 hPa 0,0 l/m 1,9 km/h (1 Bft) N-NW 331 2 min 0,000 mm 3,2 UV-I 476 W/m 18,7 C 23,6 C 6,4 km/h (2 Bft) 98,11 %
22.07.2016 11:38 23,7 C 75 % 1014,2 hPa 0,0 l/m 1,9 km/h (1 Bft) N-NW 329 0 min 0,000 mm 3,0 UV-I 340 W/m 19,0 C 23,7 C 3,2 km/h (1 Bft) 97,87 %
22.07.2016 11:40 23,6 C 73 % 1014,1 hPa 0,0 l/m 1,7 km/h (1 Bft) W-NW 302 0 min 0,000 mm 2,9 UV-I 331 W/m 18,5 C 23,6 C 4,8 km/h (1 Bft) 100,00 %
22.07.2016 11:42 23,6 C 74 % 1014,1 hPa 0,0 l/m 1,2 km/h (1 Bft) W-NW 302 0 min 0,000 mm 3,1 UV-I 343 W/m 18,7 C 23,6 C 3,2 km/h (1 Bft) 100,00 %
22.07.2016 11:44 23,6 C 74 % 1014,1 hPa 0,0 l/m 2,5 km/h (1 Bft) W 264 0 min 0,000 mm 3,9 UV-I 396 W/m 18,7 C 23,6 C 6,4 km/h (2 Bft) 100,00 %
22.07.2016 11:46 23,7 C 75 % 1014,0 hPa 0,0 l/m 2,4 km/h (1 Bft) W-NW 284 2 min 0,000 mm 4,1 UV-I 475 W/m 19,0 C 23,7 C 4,8 km/h (1 Bft) 98,11 %
22.07.2016 11:48 23,8 C 77 % 1014,1 hPa 0,0 l/m 0,8 km/h (0 Bft) W-NW 285 2 min 0,000 mm 5,1 UV-I 574 W/m 19,5 C 23,8 C 1,6 km/h (1 Bft) 100,00 %
22.07.2016 11:50 24,3 C 73 % 1014,0 hPa 0,0 l/m 3,2 km/h (1 Bft) N-NO 32 2 min 0,000 mm 6,2 UV-I 1040 W/m 19,1 C 24,3 C 4,8 km/h (1 Bft) 100,00 %
22.07.2016 11:52 24,8 C 73 % 1014,0 hPa 0,0 l/m 2,3 km/h (1 Bft) N-NW 346 2 min 0,000 mm 6,3 UV-I 1030 W/m 19,6 C 24,8 C 4,8 km/h (1 Bft) 98,00 %
22.07.2016 11:54 24,9 C 73 % 1014,0 hPa 0,0 l/m 4,0 km/h (1 Bft) NW 321 2 min 0,000 mm 6,4 UV-I 997 W/m 19,7 C 24,9 C 6,4 km/h (2 Bft) 100,00 %
22.07.2016 11:56 25,0 C 72 % 1014,0 hPa 0,0 l/m 6,9 km/h (2 Bft) NO 43 2 min 0,000 mm 6,1 UV-I 940 W/m 19,6 C 24,9 C 12,9 km/h (3 Bft) 98,00 %
22.07.2016 11:58 25,1 C 68 % 1013,9 hPa 0,0 l/m 6,7 km/h (2 Bft) N-NO 31 2 min 0,000 mm 5,5 UV-I 862 W/m 18,8 C 25,0 C 9,7 km/h (2 Bft) 100,00 %
22.07.2016 12:00 25,0 C 71 % 1013,9 hPa 0,0 l/m 3,4 km/h (1 Bft) N 355 2 min 0,000 mm 4,8 UV-I 818 W/m 19,4 C 25,0 C 6,4 km/h (2 Bft) 98,11 %
22.07.2016 12:02 24,8 C 68 % 1013,9 hPa 0,0 l/m 1,9 km/h (1 Bft) N-NW 348 2 min 0,407 mm 3,8 UV-I 706 W/m 18,5 C 24,8 C 4,8 km/h (1 Bft) 100,00 %
22.07.2016 12:04 24,6 C 69 % 1014,0 hPa 0,0 l/m 2,8 km/h (1 Bft) O-NO 75 0 min 0,000 mm 3,5 UV-I 262 W/m 18,5 C 24,6 C 6,4 km/h (2 Bft) 98,11 %
22.07.2016 12:06 24,3 C 71 % 1013,9 hPa 0,0 l/m 4,8 km/h (1 Bft) NO 46 0 min 0,000 mm 3,7 UV-I 284 W/m 18,7 C 24,3 C 9,7 km/h (2 Bft) 100,00 %
22.07.2016 12:08 24,3 C 72 % 1013,9 hPa 0,0 l/m 2,7 km/h (1 Bft) O 89 2 min 0,000 mm 6,0 UV-I 723 W/m 18,9 C 24,3 C 4,8 km/h (1 Bft) 100,00 %
22.07.2016 12:10 24,4 C 72 % 1013,8 hPa 0,0 l/m 4,1 km/h (1 Bft) O-NO 74 2 min 0,000 mm 5,3 UV-I 933 W/m 19,0 C 24,4 C 6,4 km/h (2 Bft) 100,00 %
22.07.2016 12:12 24,3 C 69 % 1013,9 hPa 0,0 l/m 1,4 km/h (1 Bft) O-NO 74 0 min 0,000 mm 4,0 UV-I 315 W/m 18,2 C 24,3 C 3,2 km/h (1 Bft) 100,00 %
22.07.2016 12:15 24,1 C 72 % 1013,7 hPa 0,0 l/m 1,6 km/h (1 Bft) O-NO 67 0 min 0,000 mm 4,0 UV-I 275 W/m 18,7 C 24,1 C 6,4 km/h (2 Bft) 100,00 %
22.07.2016 12:18 24,3 C 71 % 1013,7 hPa 0,0 l/m 3,0 km/h (1 Bft) NW 311 3 min 0,000 mm 6,0 UV-I 662 W/m 18,7 C 24,3 C 4,8 km/h (1 Bft) 96,36 %
22.07.2016 12:20 24,6 C 71 % 1013,7 hPa 0,0 l/m 3,1 km/h (1 Bft) O-NO 71 2 min 0,000 mm 6,1 UV-I 834 W/m 19,0 C 24,6 C 11,3 km/h (2 Bft) 97,87 %
22.07.2016 12:22 24,8 C 71 % 1013,7 hPa 0,0 l/m 4,8 km/h (1 Bft) O-NO 67 2 min 0,000 mm 6,1 UV-I 868 W/m 19,2 C 24,8 C 8,0 km/h (2 Bft) 97,56 %
22.07.2016 12:24 25,1 C 68 % 1013,7 hPa 0,0 l/m 2,5 km/h (1 Bft) N-NO 31 2 min 0,000 mm 6,0 UV-I 851 W/m 18,8 C 25,1 C 6,4 km/h (2 Bft) 97,73 %
22.07.2016 12:26 25,2 C 71 % 1013,7 hPa 0,0 l/m 5,2 km/h (1 Bft) O-NO 74 2 min 0,000 mm 5,1 UV-I 816 W/m 19,6 C 25,2 C 11,3 km/h (2 Bft) 98,00 %
22.07.2016 12:28 25,3 C 69 % 1013,7 hPa 0,0 l/m 4,2 km/h (1 Bft) N-NO 22 2 min 0,000 mm 6,0 UV-I 739 W/m 19,2 C 25,3 C 6,4 km/h (2 Bft) 96,00 %
22.07.2016 12:30 25,1 C 66 % 1013,7 hPa 0,0 l/m 2,1 km/h (1 Bft) O-SO 105 2 min 0,000 mm 5,3 UV-I 872 W/m 18,3 C 25,1 C 4,8 km/h (1 Bft) 98,00 %
22.07.2016 12:32 24,7 C 67 % 1013,7 hPa 0,0 l/m 2,3 km/h (1 Bft) O-SO 105 2 min 0,000 mm 4,1 UV-I 700 W/m 18,1 C 24,7 C 4,8 km/h (1 Bft) 97,56 %
22.07.2016 12:34 24,4 C 69 % 1013,7 hPa 0,0 l/m 3,7 km/h (1 Bft) O-NO 76 0 min 0,000 mm 4,0 UV-I 217 W/m 18,3 C 24,4 C 6,4 km/h (2 Bft) 98,00 %
22.07.2016 12:36 24,3 C 67 % 1013,7 hPa 0,0 l/m 2,3 km/h (1 Bft) O-NO 76 0 min 0,000 mm 4,3 UV-I 263 W/m 17,8 C 24,3 C 3,2 km/h (1 Bft) 97,44 %
22.07.2016 12:38 24,2 C 69 % 1013,7 hPa 0,0 l/m 3,7 km/h (1 Bft) N-NO 33 0 min 0,000 mm 3,9 UV-I 250 W/m 18,1 C 24,2 C 4,8 km/h (1 Bft) 96,23 %
22.07.2016 12:40 24,2 C 69 % 1013,7 hPa 0,0 l/m 3,7 km/h (1 Bft) O 89 0 min 0,000 mm 3,5 UV-I 129 W/m 18,1 C 24,2 C 6,4 km/h (2 Bft) 97,56 %
22.07.2016 12:42 24,2 C 68 % 1013,7 hPa 0,0 l/m 6,0 km/h (2 Bft) O-SO 103 0 min 0,000 mm 3,3 UV-I 109 W/m 17,9 C 24,2 C 9,7 km/h (2 Bft) 94,44 %
22.07.2016 12:44 24,1 C 70 % 1013,6 hPa 0,0 l/m 4,7 km/h (1 Bft) O-NO 77 0 min 0,000 mm 3,2 UV-I 103 W/m 18,3 C 24,1 C 6,4 km/h (2 Bft) 95,74 %
22.07.2016 12:46 24,1 C 70 % 1013,6 hPa 0,0 l/m 3,4 km/h (1 Bft) O 90 0 min 0,000 mm 3,2 UV-I 112 W/m 18,3 C 24,1 C 6,4 km/h (2 Bft) 97,87 %
22.07.2016 12:48 24,2 C 71 % 1013,6 hPa 0,0 l/m 5,7 km/h (1 Bft) O-SO 102 0 min 0,000 mm 3,4 UV-I 126 W/m 18,6 C 24,2 C 9,7 km/h (2 Bft) 98,00 %
22.07.2016 12:50 24,2 C 70 % 1013,6 hPa 0,0 l/m 4,9 km/h (1 Bft) O-SO 114 0 min 0,000 mm 3,6 UV-I 130 W/m 18,4 C 24,2 C 9,7 km/h (2 Bft) 100,00 %
22.07.2016 12:52 24,2 C 68 % 1013,6 hPa 0,0 l/m 5,7 km/h (1 Bft) SO 127 0 min 0,000 mm 5,4 UV-I 219 W/m 17,9 C 24,2 C 8,0 km/h (2 Bft) 98,04 %
22.07.2016 12:54 24,4 C 69 % 1013,6 hPa 0,0 l/m 1,7 km/h (1 Bft) SO 136 2 min 0,000 mm 6,4 UV-I 937 W/m 18,3 C 24,4 C 4,8 km/h (1 Bft) 98,00 %
22.07.2016 12:56 24,7 C 67 % 1013,5 hPa 0,0 l/m 0,9 km/h (0 Bft) SO 128 2 min 0,000 mm 5,5 UV-I 932 W/m 18,1 C 24,7 C 3,2 km/h (1 Bft) 97,56 %
22.07.2016 12:58 24,8 C 66 % 1013,5 hPa 0,0 l/m 2,3 km/h (1 Bft) O 96 2 min 0,000 mm 6,6 UV-I 930 W/m 18,0 C 24,8 C 4,8 km/h (1 Bft) 100,00 %
22.07.2016 13:00 25,0 C 70 % 1013,5 hPa 0,0 l/m 1,0 km/h (0 Bft) O-SO 104 2 min 0,330 mm 6,7 UV-I 944 W/m 19,1 C 25,0 C 3,2 km/h (1 Bft) 100,00 %
22.07.2016 13:02 25,3 C 66 % 1013,5 hPa 0,0 l/m 2,5 km/h (1 Bft) S-SO 163 2 min 0,000 mm 6,6 UV-I 953 W/m 18,5 C 25,3 C 4,8 km/h (1 Bft) 100,00 %
22.07.2016 13:04 25,4 C 64 % 1013,4 hPa 0,0 l/m 1,4 km/h (1 Bft) S-SO 161 2 min 0,000 mm 6,7 UV-I 956 W/m 18,1 C 25,4 C 3,2 km/h (1 Bft) 100,00 %
22.07.2016 13:06 25,5 C 66 % 1013,4 hPa 0,0 l/m 1,5 km/h (1 Bft) NO 48 2 min 0,000 mm 6,7 UV-I 953 W/m 18,7 C 25,5 C 3,2 km/h (1 Bft) 100,00 %
22.07.2016 13:08 25,8 C 64 % 1013,4 hPa 0,0 l/m 5,4 km/h (1 Bft) N-NO 13 2 min 0,000 mm 6,7 UV-I 950 W/m 18,5 C 25,8 C 11,3 km/h (2 Bft) 96,30 %
22.07.2016 13:10 26,1 C 63 % 1013,4 hPa 0,0 l/m 2,7 km/h (1 Bft) N-NW 348 2 min 0,000 mm 6,8 UV-I 942 W/m 18,5 C 26,1 C 6,4 km/h (2 Bft) 100,00 %
22.07.2016 13:12 26,2 C 63 % 1013,3 hPa 0,0 l/m 3,8 km/h (1 Bft) N-NW 344 2 min 0,000 mm 6,8 UV-I 927 W/m 18,6 C 26,2 C 6,4 km/h (2 Bft) 100,00 %
22.07.2016 13:14 26,4 C 66 % 1013,3 hPa 0,0 l/m 6,9 km/h (2 Bft) N-NO 24 2 min 0,000 mm 6,7 UV-I 911 W/m 19,5 C 26,3 C 14,5 km/h (3 Bft) 100,00 %
22.07.2016 13:16 26,7 C 64 % 1013,2 hPa 0,0 l/m 5,3 km/h (1 Bft) N-NO 19 2 min 0,000 mm 6,7 UV-I 886 W/m 19,3 C 26,7 C 11,3 km/h (2 Bft) 100,00 %
22.07.2016 13:18 26,6 C 63 % 1013,2 hPa 0,0 l/m 6,2 km/h (2 Bft) N-NO 25 2 min 0,000 mm 6,6 UV-I 866 W/m 19,0 C 26,6 C 9,7 km/h (2 Bft) 98,31 %
22.07.2016 13:20 26,6 C 63 % 1013,2 hPa 0,0 l/m 4,2 km/h (1 Bft) N-NW 330 2 min 0,000 mm 6,4 UV-I 813 W/m 19,0 C 26,6 C 6,4 km/h (2 Bft) 100,00 %
22.07.2016 13:22 26,7 C 63 % 1013,2 hPa 0,0 l/m 3,8 km/h (1 Bft) N-NO 32 2 min 0,000 mm 6,2 UV-I 804 W/m 19,1 C 26,7 C 6,4 km/h (2 Bft) 98,11 %
22.07.2016 13:24 26,5 C 62 % 1013,2 hPa 0,0 l/m 3,6 km/h (1 Bft) N-NO 17 2 min 0,000 mm 6,1 UV-I 805 W/m 18,6 C 26,5 C 6,4 km/h (2 Bft) 100,00 %
22.07.2016 13:26 26,1 C 60 % 1013,2 hPa 0,0 l/m 0,7 km/h (0 Bft) SO 138 2 min 0,000 mm 6,4 UV-I 878 W/m 17,7 C 26,1 C 3,2 km/h (1 Bft) 100,00 %
22.07.2016 13:28 26,2 C 62 % 1013,2 hPa 0,0 l/m 2,7 km/h (1 Bft) N-NW 342 2 min 0,000 mm 6,5 UV-I 888 W/m 18,3 C 26,2 C 4,8 km/h (1 Bft) 97,87 %
22.07.2016 13:30 26,3 C 60 % 1013,2 hPa 0,0 l/m 2,2 km/h (1 Bft) N-NW 327 2 min 0,000 mm 6,7 UV-I 904 W/m 17,9 C 26,3 C 4,8 km/h (1 Bft) 100,00 %
22.07.2016 13:32 26,5 C 60 % 1013,2 hPa 0,0 l/m 2,4 km/h (1 Bft) N-NO 24 2 min 0,000 mm 6,7 UV-I 914 W/m 18,1 C 26,5 C 6,4 km/h (2 Bft) 98,00 %
22.07.2016 13:34 26,4 C 59 % 1013,2 hPa 0,0 l/m 5,0 km/h (1 Bft) N 10 2 min 0,000 mm 6,7 UV-I 922 W/m 17,7 C 26,4 C 8,0 km/h (2 Bft) 100,00 %
22.07.2016 13:36 26,1 C 59 % 1013,2 hPa 0,0 l/m 3,0 km/h (1 Bft) O 93 2 min 0,000 mm 6,7 UV-I 929 W/m 17,4 C 26,1 C 6,4 km/h (2 Bft) 100,00 %
22.07.2016 13:38 26,1 C 63 % 1013,1 hPa 0,0 l/m 6,0 km/h (2 Bft) O-NO 72 2 min 0,000 mm 6,5 UV-I 916 W/m 18,5 C 26,1 C 8,0 km/h (2 Bft) 100,00 %
22.07.2016 13:40 26,2 C 59 % 1013,1 hPa 0,0 l/m 5,0 km/h (1 Bft) SO 136 2 min 0,000 mm 6,4 UV-I 871 W/m 17,5 C 26,2 C 9,7 km/h (2 Bft) 98,00 %
22.07.2016 13:42 26,0 C 59 % 1013,1 hPa 0,0 l/m 1,9 km/h (1 Bft) S-SO 157 2 min 0,000 mm 6,4 UV-I 906 W/m 17,4 C 26,0 C 4,8 km/h (1 Bft) 100,00 %
22.07.2016 13:44 26,0 C 60 % 1013,2 hPa 0,0 l/m 1,6 km/h (1 Bft) O 81 2 min 0,000 mm 5,9 UV-I 912 W/m 17,6 C 26,0 C 3,2 km/h (1 Bft) 97,56 %
22.07.2016 13:46 26,3 C 65 % 1013,1 hPa 0,0 l/m 5,1 km/h (1 Bft) NO 45 2 min 0,000 mm 6,4 UV-I 926 W/m 19,2 C 26,3 C 8,0 km/h (2 Bft) 100,00 %
22.07.2016 13:48 26,7 C 60 % 1013,1 hPa 0,0 l/m 5,2 km/h (1 Bft) N-NO 16 2 min 0,000 mm 6,4 UV-I 908 W/m 18,3 C 26,7 C 8,0 km/h (2 Bft) 100,00 %
22.07.2016 13:50 27,1 C 61 % 1013,1 hPa 0,0 l/m 4,5 km/h (1 Bft) NO 53 2 min 0,000 mm 6,3 UV-I 895 W/m 18,9 C 27,1 C 9,7 km/h (2 Bft) 100,00 %
22.07.2016 13:52 27,0 C 59 % 1013,1 hPa 0,0 l/m 5,6 km/h (1 Bft) NO 49 2 min 0,000 mm 4,3 UV-I 791 W/m 18,3 C 27,0 C 9,7 km/h (2 Bft) 100,00 %
22.07.2016 13:54 26,5 C 57 % 1013,1 hPa 0,0 l/m 1,9 km/h (1 Bft) NO 42 0 min 0,000 mm 4,1 UV-I 243 W/m 17,3 C 26,5 C 6,4 km/h (2 Bft) 100,00 %
22.07.2016 13:56 26,3 C 61 % 1013,1 hPa 0,0 l/m 6,7 km/h (2 Bft) N 9 0 min 0,000 mm 5,1 UV-I 362 W/m 18,2 C 26,2 C 11,3 km/h (2 Bft) 100,00 %
22.07.2016 13:58 26,7 C 61 % 1013,1 hPa 0,0 l/m 10,4 km/h (2 Bft) N-NO 29 2 min 0,000 mm 6,2 UV-I 864 W/m 18,5 C 26,0 C 14,5 km/h (3 Bft) 100,00 %
22.07.2016 14:00 26,8 C 58 % 1013,0 hPa 0,0 l/m 4,8 km/h (1 Bft) NO 40 2 min 0,559 mm 6,2 UV-I 895 W/m 17,8 C 26,8 C 11,3 km/h (2 Bft) 98,00 %
22.07.2016 14:02 26,8 C 58 % 1013,0 hPa 0,0 l/m 6,2 km/h (2 Bft) N-NO 28 2 min 0,000 mm 6,3 UV-I 920 W/m 17,8 C 26,8 C 9,7 km/h (2 Bft) 100,00 %
22.07.2016 14:04 27,1 C 57 % 1013,0 hPa 0,0 l/m 8,5 km/h (2 Bft) NO 34 2 min 0,000 mm 6,3 UV-I 925 W/m 17,8 C 26,7 C 16,1 km/h (3 Bft) 100,00 %
22.07.2016 14:06 27,0 C 57 % 1013,0 hPa 0,0 l/m 3,4 km/h (1 Bft) N 355 2 min 0,000 mm 6,3 UV-I 928 W/m 17,7 C 27,0 C 6,4 km/h (2 Bft) 100,00 %
22.07.2016 14:08 27,2 C 55 % 1012,9 hPa 0,0 l/m 2,9 km/h (1 Bft) NW 310 2 min 0,000 mm 6,2 UV-I 933 W/m 17,4 C 27,2 C 6,4 km/h (2 Bft) 98,21 %
22.07.2016 14:10 27,1 C 54 % 1012,9 hPa 0,0 l/m 3,0 km/h (1 Bft) N-NW 348 2 min 0,000 mm 6,1 UV-I 921 W/m 17,0 C 27,1 C 4,8 km/h (1 Bft) 98,00 %
22.07.2016 14:12 27,0 C 55 % 1012,9 hPa 0,0 l/m 5,3 km/h (1 Bft) N 10 2 min 0,000 mm 6,1 UV-I 932 W/m 17,2 C 27,0 C 8,0 km/h (2 Bft) 97,87 %
22.07.2016 14:14 27,1 C 55 % 1012,9 hPa 0,0 l/m 3,3 km/h (1 Bft) N-NO 24 2 min 0,000 mm 6,3 UV-I 943 W/m 17,3 C 27,1 C 6,4 km/h (2 Bft) 97,56 %
22.07.2016 14:16 27,2 C 55 % 1012,9 hPa 0,0 l/m 2,6 km/h (1 Bft) NW 311 2 min 0,000 mm 6,3 UV-I 939 W/m 17,4 C 27,2 C 6,4 km/h (2 Bft) 97,56 %
22.07.2016 14:18 27,2 C 59 % 1012,8 hPa 0,0 l/m 6,4 km/h (2 Bft) NO 43 2 min 0,000 mm 6,2 UV-I 907 W/m 18,5 C 27,2 C 12,9 km/h (3 Bft) 98,11 %
22.07.2016 14:20 27,3 C 56 % 1012,8 hPa 0,0 l/m 6,5 km/h (2 Bft) NO 50 2 min 0,000 mm 6,1 UV-I 896 W/m 17,7 C 27,3 C 9,7 km/h (2 Bft) 96,00 %
22.07.2016 14:22 27,3 C 53 % 1012,8 hPa 0,0 l/m 3,3 km/h (1 Bft) O-NO 65 2 min 0,000 mm 6,0 UV-I 873 W/m 16,9 C 27,3 C 6,4 km/h (2 Bft) 100,00 %
22.07.2016 14:24 27,1 C 56 % 1012,8 hPa 0,0 l/m 1,5 km/h (1 Bft) W-NW 292 2 min 0,000 mm 5,9 UV-I 870 W/m 17,5 C 27,1 C 4,8 km/h (1 Bft) 95,74 %
22.07.2016 14:26 26,9 C 54 % 1012,8 hPa 0,0 l/m 2,6 km/h (1 Bft) W-NW 292 2 min 0,000 mm 5,7 UV-I 879 W/m 16,8 C 26,9 C 4,8 km/h (1 Bft) 97,87 %
22.07.2016 14:28 26,8 C 56 % 1012,8 hPa 0,0 l/m 3,1 km/h (1 Bft) W-NW 290 2 min 0,000 mm 5,9 UV-I 865 W/m 17,3 C 26,8 C 6,4 km/h (2 Bft) 98,00 %
22.07.2016 14:30 26,8 C 57 % 1012,7 hPa 0,0 l/m 5,1 km/h (1 Bft) NO 50 2 min 0,000 mm 5,9 UV-I 854 W/m 17,6 C 26,8 C 9,7 km/h (2 Bft) 97,87 %
22.07.2016 14:32 27,2 C 59 % 1012,7 hPa 0,0 l/m 7,3 km/h (2 Bft) O-NO 58 2 min 0,000 mm 5,9 UV-I 861 W/m 18,5 C 27,0 C 14,5 km/h (3 Bft) 98,00 %
22.07.2016 14:34 27,3 C 58 % 1012,7 hPa 0,0 l/m 10,9 km/h (2 Bft) N-NO 32 2 min 0,000 mm 5,8 UV-I 862 W/m 18,3 C 26,6 C 17,7 km/h (3 Bft) 97,62 %
22.07.2016 14:36 27,4 C 57 % 1012,6 hPa 0,0 l/m 8,5 km/h (2 Bft) O 88 2 min 0,000 mm 5,8 UV-I 861 W/m 18,1 C 27,0 C 12,9 km/h (3 Bft) 97,73 %
22.07.2016 14:38 27,4 C 56 % 1012,6 hPa 0,0 l/m 9,8 km/h (2 Bft) NO 55 2 min 0,000 mm 5,8 UV-I 866 W/m 17,8 C 26,8 C 14,5 km/h (3 Bft) 98,00 %
22.07.2016 14:40 27,4 C 57 % 1012,6 hPa 0,0 l/m 9,9 km/h (2 Bft) NO 41 2 min 0,000 mm 5,7 UV-I 863 W/m 18,1 C 26,8 C 16,1 km/h (3 Bft) 96,00 %
22.07.2016 14:42 27,5 C 55 % 1012,6 hPa 0,0 l/m 8,0 km/h (2 Bft) O-NO 57 2 min 0,000 mm 5,7 UV-I 860 W/m 17,6 C 27,2 C 16,1 km/h (3 Bft) 98,00 %
22.07.2016 14:44 27,5 C 55 % 1012,6 hPa 0,0 l/m 11,3 km/h (2 Bft) NO 38 2 min 0,000 mm 5,6 UV-I 853 W/m 17,6 C 26,8 C 17,7 km/h (3 Bft) 97,37 %
22.07.2016 14:46 27,5 C 56 % 1012,6 hPa 0,0 l/m 3,6 km/h (1 Bft) N-NO 17 2 min 0,000 mm 5,5 UV-I 852 W/m 17,9 C 27,5 C 9,7 km/h (2 Bft) 100,00 %
22.07.2016 14:48 27,3 C 56 % 1012,6 hPa 0,0 l/m 4,6 km/h (1 Bft) N 11 2 min 0,000 mm 5,4 UV-I 848 W/m 17,7 C 27,3 C 11,3 km/h (2 Bft) 100,00 %
22.07.2016 14:50 27,6 C 54 % 1012,6 hPa 0,0 l/m 9,9 km/h (2 Bft) N-NO 32 2 min 0,000 mm 5,3 UV-I 843 W/m 17,4 C 27,0 C 14,5 km/h (3 Bft) 100,00 %
22.07.2016 14:52 27,4 C 54 % 1012,6 hPa 0,0 l/m 3,4 km/h (1 Bft) O 97 2 min 0,000 mm 5,3 UV-I 824 W/m 17,3 C 27,4 C 12,9 km/h (3 Bft) 98,00 %
22.07.2016 14:54 27,4 C 54 % 1012,6 hPa 0,0 l/m 3,1 km/h (1 Bft) N-NO 28 2 min 0,000 mm 5,2 UV-I 805 W/m 17,3 C 27,4 C 4,8 km/h (1 Bft) 98,00 %
22.07.2016 14:56 27,5 C 55 % 1012,5 hPa 0,0 l/m 4,5 km/h (1 Bft) N-NO 18 2 min 0,000 mm 5,2 UV-I 812 W/m 17,6 C 27,5 C 8,0 km/h (2 Bft) 100,00 %
22.07.2016 14:58 27,4 C 55 % 1012,5 hPa 0,0 l/m 7,2 km/h (2 Bft) N 9 2 min 0,000 mm 5,4 UV-I 830 W/m 17,5 C 27,3 C 14,5 km/h (3 Bft) 100,00 %
22.07.2016 15:00 27,3 C 53 % 1012,5 hPa 0,0 l/m 2,6 km/h (1 Bft) W-NW 293 2 min 0,609 mm 5,3 UV-I 813 W/m 16,9 C 27,3 C 6,4 km/h (2 Bft) 100,00 %
22.07.2016 15:02 27,1 C 53 % 1012,4 hPa 0,0 l/m 5,9 km/h (2 Bft) S 175 2 min 0,000 mm 5,3 UV-I 822 W/m 16,7 C 27,1 C 9,7 km/h (2 Bft) 100,00 %
22.07.2016 15:04 26,9 C 54 % 1012,4 hPa 0,0 l/m 3,8 km/h (1 Bft) W 277 2 min 0,000 mm 5,3 UV-I 834 W/m 16,8 C 26,9 C 6,4 km/h (2 Bft) 98,11 %
22.07.2016 15:06 27,2 C 55 % 1012,4 hPa 0,0 l/m 3,0 km/h (1 Bft) N-NO 13 2 min 0,000 mm 5,2 UV-I 839 W/m 17,4 C 27,2 C 6,4 km/h (2 Bft) 100,00 %
22.07.2016 15:08 27,6 C 55 % 1012,4 hPa 0,0 l/m 3,0 km/h (1 Bft) N-NO 15 2 min 0,000 mm 5,0 UV-I 806 W/m 17,7 C 27,6 C 6,4 km/h (2 Bft) 100,00 %
22.07.2016 15:10 27,7 C 52 % 1012,4 hPa 0,0 l/m 6,1 km/h (2 Bft) NO 46 2 min 0,000 mm 4,7 UV-I 787 W/m 16,9 C 27,7 C 9,7 km/h (2 Bft) 100,00 %
22.07.2016 15:12 27,6 C 51 % 1012,4 hPa 0,0 l/m 2,6 km/h (1 Bft) O 87 2 min 0,000 mm 4,6 UV-I 796 W/m 16,5 C 27,6 C 9,7 km/h (2 Bft) 100,00 %
22.07.2016 15:14 27,4 C 52 % 1012,4 hPa 0,0 l/m 2,0 km/h (1 Bft) S-SO 166 2 min 0,000 mm 4,1 UV-I 743 W/m 16,7 C 27,4 C 6,4 km/h (2 Bft) 100,00 %
22.07.2016 15:16 27,3 C 53 % 1012,4 hPa 0,0 l/m 3,9 km/h (1 Bft) N 355 0 min 0,000 mm 3,2 UV-I 240 W/m 16,9 C 27,3 C 6,4 km/h (2 Bft) 100,00 %
22.07.2016 15:18 27,2 C 54 % 1012,4 hPa 0,0 l/m 6,4 km/h (2 Bft) N 5 0 min 0,000 mm 3,6 UV-I 196 W/m 17,1 C 27,2 C 11,3 km/h (2 Bft) 100,00 %
22.07.2016 15:20 27,3 C 55 % 1012,4 hPa 0,0 l/m 7,1 km/h (2 Bft) N 360 2 min 0,000 mm 4,9 UV-I 556 W/m 17,4 C 27,2 C 17,7 km/h (3 Bft) 100,00 %
22.07.2016 15:22 27,7 C 52 % 1012,4 hPa 0,0 l/m 7,1 km/h (2 Bft) NO 44 2 min 0,000 mm 4,8 UV-I 803 W/m 16,9 C 27,6 C 11,3 km/h (2 Bft) 100,00 %
22.07.2016 15:24 27,8 C 50 % 1012,4 hPa 0,0 l/m 10,4 km/h (2 Bft) NO 54 2 min 0,000 mm 4,8 UV-I 811 W/m 16,4 C 27,2 C 16,1 km/h (3 Bft) 97,87 %
22.07.2016 15:26 27,8 C 51 % 1012,3 hPa 0,0 l/m 9,7 km/h (2 Bft) O-NO 78 2 min 0,000 mm 4,8 UV-I 831 W/m 16,7 C 27,3 C 14,5 km/h (3 Bft) 100,00 %
22.07.2016 15:28 27,8 C 51 % 1012,3 hPa 0,0 l/m 9,1 km/h (2 Bft) O 89 2 min 0,000 mm 4,7 UV-I 836 W/m 16,7 C 27,4 C 12,9 km/h (3 Bft) 100,00 %
22.07.2016 15:30 27,8 C 51 % 1012,3 hPa 0,0 l/m 5,6 km/h (1 Bft) N-NO 15 2 min 0,000 mm 4,7 UV-I 835 W/m 16,7 C 27,8 C 12,9 km/h (3 Bft) 94,34 %
22.07.2016 15:32 28,0 C 52 % 1012,3 hPa 0,0 l/m 5,6 km/h (1 Bft) NO 42 2 min 0,000 mm 4,2 UV-I 847 W/m 17,2 C 28,0 C 11,3 km/h (2 Bft) 100,00 %
22.07.2016 15:34 27,8 C 51 % 1012,2 hPa 0,0 l/m 3,8 km/h (1 Bft) O 83 0 min 0,000 mm 3,1 UV-I 394 W/m 16,7 C 27,8 C 4,8 km/h (1 Bft) 100,00 %
22.07.2016 15:36 27,6 C 51 % 1012,2 hPa 0,0 l/m 5,7 km/h (1 Bft) O-NO 61 0 min 0,000 mm 3,3 UV-I 300 W/m 16,5 C 27,6 C 9,7 km/h (2 Bft) 100,00 %
22.07.2016 15:38 27,6 C 53 % 1012,2 hPa 0,0 l/m 6,1 km/h (2 Bft) O-NO 59 2 min 0,000 mm 4,3 UV-I 631 W/m 17,1 C 27,6 C 9,7 km/h (2 Bft) 100,00 %
22.07.2016 15:40 27,7 C 54 % 1012,2 hPa 0,0 l/m 7,9 km/h (2 Bft) O 86 2 min 0,000 mm 4,2 UV-I 842 W/m 17,5 C 27,5 C 12,9 km/h (3 Bft) 100,00 %
22.07.2016 15:42 27,7 C 53 % 1012,2 hPa 0,0 l/m 8,3 km/h (2 Bft) O-SO 123 2 min 0,000 mm 3,8 UV-I 821 W/m 17,2 C 27,4 C 14,5 km/h (3 Bft) 100,00 %
22.07.2016 15:44 27,8 C 55 % 1012,2 hPa 0,0 l/m 6,2 km/h (2 Bft) NO 55 2 min 0,000 mm 3,6 UV-I 821 W/m 17,9 C 27,8 C 11,3 km/h (2 Bft) 98,21 %
22.07.2016 15:46 27,8 C 53 % 1012,2 hPa 0,0 l/m 4,6 km/h (1 Bft) O-NO 61 0 min 0,000 mm 2,8 UV-I 391 W/m 17,3 C 27,8 C 11,3 km/h (2 Bft) 97,37 %
22.07.2016 15:48 27,6 C 54 % 1012,2 hPa 0,0 l/m 4,8 km/h (1 Bft) O-NO 65 0 min 0,000 mm 3,2 UV-I 253 W/m 17,4 C 27,6 C 6,4 km/h (2 Bft) 100,00 %
22.07.2016 15:50 27,5 C 53 % 1012,2 hPa 0,0 l/m 3,9 km/h (1 Bft) NO 46 2 min 0,000 mm 3,6 UV-I 735 W/m 17,0 C 27,5 C 8,0 km/h (2 Bft) 100,00 %
22.07.2016 15:52 27,4 C 52 % 1012,2 hPa 0,0 l/m 5,4 km/h (1 Bft) N 11 2 min 0,000 mm 2,5 UV-I 526 W/m 16,7 C 27,4 C 9,7 km/h (2 Bft) 100,00 %
22.07.2016 15:54 27,3 C 53 % 1012,1 hPa 0,0 l/m 1,9 km/h (1 Bft) W 273 0 min 0,000 mm 3,4 UV-I 155 W/m 16,9 C 27,3 C 4,8 km/h (1 Bft) 100,00 %
22.07.2016 15:56 27,3 C 54 % 1012,1 hPa 0,0 l/m 2,6 km/h (1 Bft) NW 315 2 min 0,000 mm 3,1 UV-I 493 W/m 17,2 C 27,3 C 6,4 km/h (2 Bft) 100,00 %
22.07.2016 15:58 27,5 C 53 % 1012,0 hPa 0,0 l/m 5,3 km/h (1 Bft) N-NO 29 2 min 0,000 mm 3,7 UV-I 693 W/m 17,0 C 27,5 C 14,5 km/h (3 Bft) 100,00 %
22.07.2016 16:00 27,8 C 53 % 1012,0 hPa 0,0 l/m 9,3 km/h (2 Bft) O-NO 71 2 min 0,458 mm 3,9 UV-I 719 W/m 17,3 C 27,4 C 12,9 km/h (3 Bft) 100,00 %
22.07.2016 16:02 27,9 C 51 % 1012,0 hPa 0,0 l/m 12,3 km/h (3 Bft) NO 55 2 min 0,000 mm 3,9 UV-I 719 W/m 16,8 C 27,1 C 17,7 km/h (3 Bft) 100,00 %
22.07.2016 16:04 27,9 C 51 % 1012,0 hPa 0,0 l/m 10,1 km/h (2 Bft) O-NO 65 2 min 0,000 mm 3,8 UV-I 713 W/m 16,8 C 27,4 C 17,7 km/h (3 Bft) 98,21 %
22.07.2016 16:06 27,9 C 53 % 1011,9 hPa 0,0 l/m 12,3 km/h (3 Bft) NO 43 2 min 0,000 mm 3,7 UV-I 699 W/m 17,4 C 27,1 C 19,3 km/h (3 Bft) 98,00 %
22.07.2016 16:08 28,1 C 50 % 1011,9 hPa 0,0 l/m 9,1 km/h (2 Bft) O-NO 63 2 min 0,000 mm 3,7 UV-I 706 W/m 16,7 C 27,7 C 16,1 km/h (3 Bft) 97,37 %
22.07.2016 16:10 28,2 C 54 % 1011,9 hPa 0,0 l/m 3,8 km/h (1 Bft) N 11 2 min 0,000 mm 3,6 UV-I 702 W/m 18,0 C 28,2 C 8,0 km/h (2 Bft) 96,00 %
22.07.2016 16:12 28,3 C 51 % 1011,9 hPa 0,0 l/m 9,1 km/h (2 Bft) O-NO 67 2 min 0,000 mm 3,0 UV-I 687 W/m 17,2 C 27,9 C 14,5 km/h (3 Bft) 97,87 %
22.07.2016 16:14 27,9 C 51 % 1011,9 hPa 0,0 l/m 8,6 km/h (2 Bft) O-NO 59 0 min 0,000 mm 2,2 UV-I 345 W/m 16,8 C 27,6 C 11,3 km/h (2 Bft) 97,56 %
22.07.2016 16:16 27,4 C 51 % 1011,8 hPa 0,0 l/m 10,0 km/h (2 Bft) N-NO 31 0 min 0,000 mm 2,1 UV-I 118 W/m 16,3 C 26,8 C 16,1 km/h (3 Bft) 97,73 %
22.07.2016 16:18 27,1 C 53 % 1011,9 hPa 0,0 l/m 8,5 km/h (2 Bft) NO 41 0 min 0,000 mm 2,0 UV-I 115 W/m 16,7 C 26,7 C 16,1 km/h (3 Bft) 96,61 %
22.07.2016 16:20 26,7 C 54 % 1011,9 hPa 0,0 l/m 13,6 km/h (3 Bft) NO 39 0 min 0,000 mm 2,1 UV-I 128 W/m 16,6 C 25,5 C 17,7 km/h (3 Bft) 94,00 %
22.07.2016 16:22 26,6 C 52 % 1011,9 hPa 0,0 l/m 8,1 km/h (2 Bft) O-NO 63 0 min 0,000 mm 2,2 UV-I 138 W/m 15,9 C 26,3 C 16,1 km/h (3 Bft) 97,56 %
22.07.2016 16:24 26,7 C 54 % 1011,8 hPa 0,0 l/m 7,5 km/h (2 Bft) O-NO 69 0 min 0,000 mm 2,8 UV-I 329 W/m 16,6 C 26,5 C 12,9 km/h (3 Bft) 97,87 %
22.07.2016 16:26 27,0 C 54 % 1011,8 hPa 0,0 l/m 8,6 km/h (2 Bft) N-NO 24 2 min 0,000 mm 3,1 UV-I 586 W/m 16,9 C 26,6 C 16,1 km/h (3 Bft) 100,00 %
22.07.2016 16:30 27,5 C 50 % 1011,8 hPa 0,0 l/m 13,1 km/h (3 Bft) NO 42 4 min 0,000 mm 3,0 UV-I 615 W/m 16,1 C 26,5 C 19,3 km/h (3 Bft) 100,00 %
22.07.2016 16:32 27,7 C 53 % 1011,7 hPa 0,0 l/m 10,3 km/h (2 Bft) NO 48 2 min 0,000 mm 3,0 UV-I 617 W/m 17,2 C 27,1 C 14,5 km/h (3 Bft) 97,44 %
22.07.2016 16:34 27,9 C 50 % 1011,8 hPa 0,0 l/m 11,6 km/h (2 Bft) O-NO 77 2 min 0,000 mm 3,0 UV-I 619 W/m 16,5 C 27,2 C 19,3 km/h (3 Bft) 98,21 %
22.07.2016 16:36 27,9 C 50 % 1011,8 hPa 0,0 l/m 14,5 km/h (3 Bft) O 98 2 min 0,000 mm 2,9 UV-I 612 W/m 16,5 C 26,9 C 19,3 km/h (3 Bft) 97,73 %
22.07.2016 16:38 27,9 C 51 % 1011,8 hPa 0,0 l/m 10,2 km/h (2 Bft) O 96 2 min 0,000 mm 2,8 UV-I 601 W/m 16,8 C 27,3 C 14,5 km/h (3 Bft) 100,00 %
22.07.2016 16:40 28,1 C 52 % 1011,8 hPa 0,0 l/m 8,7 km/h (2 Bft) N 355 2 min 0,000 mm 2,8 UV-I 591 W/m 17,3 C 27,8 C 16,1 km/h (3 Bft) 96,00 %
22.07.2016 16:42 28,1 C 52 % 1011,8 hPa 0,0 l/m 7,4 km/h (2 Bft) N-NO 30 2 min 0,000 mm 2,7 UV-I 594 W/m 17,3 C 27,9 C 14,5 km/h (3 Bft) 97,56 %
22.07.2016 16:44 28,2 C 53 % 1011,8 hPa 0,0 l/m 11,2 km/h (2 Bft) N-NO 15 2 min 0,000 mm 2,7 UV-I 595 W/m 17,7 C 27,6 C 17,7 km/h (3 Bft) 100,00 %
22.07.2016 16:46 28,2 C 52 % 1011,8 hPa 0,0 l/m 14,2 km/h (3 Bft) N-NO 16 2 min 0,000 mm 2,6 UV-I 583 W/m 17,4 C 27,3 C 22,5 km/h (4 Bft) 100,00 %
22.07.2016 16:48 28,1 C 50 % 1011,8 hPa 0,0 l/m 13,2 km/h (3 Bft) O-NO 60 2 min 0,000 mm 2,6 UV-I 585 W/m 16,7 C 27,2 C 19,3 km/h (3 Bft) 96,00 %
22.07.2016 16:50 28,0 C 51 % 1011,9 hPa 0,0 l/m 13,8 km/h (3 Bft) NO 49 2 min 0,000 mm 2,6 UV-I 587 W/m 16,9 C 27,1 C 19,3 km/h (3 Bft) 100,00 %
22.07.2016 16:52 27,9 C 50 % 1011,9 hPa 0,0 l/m 11,6 km/h (2 Bft) NO 36 2 min 0,000 mm 2,3 UV-I 570 W/m 16,5 C 27,2 C 17,7 km/h (3 Bft) 100,00 %
22.07.2016 16:54 27,6 C 50 % 1011,9 hPa 0,0 l/m 9,1 km/h (2 Bft) O-NO 60 0 min 0,000 mm 1,8 UV-I 308 W/m 16,2 C 27,2 C 14,5 km/h (3 Bft) 100,00 %
22.07.2016 16:56 27,3 C 51 % 1011,9 hPa 0,0 l/m 7,2 km/h (2 Bft) O-NO 61 0 min 0,000 mm 1,7 UV-I 113 W/m 16,3 C 27,2 C 11,3 km/h (2 Bft) 100,00 %
22.07.2016 16:58 27,1 C 53 % 1011,8 hPa 0,0 l/m 8,3 km/h (2 Bft) O-NO 65 0 min 0,000 mm 1,7 UV-I 121 W/m 16,7 C 26,8 C 16,1 km/h (3 Bft) 100,00 %
22.07.2016 17:00 27,1 C 53 % 1011,8 hPa 0,0 l/m 6,4 km/h (2 Bft) NO 47 0 min 0,000 mm 2,3 UV-I 201 W/m 16,7 C 27,1 C 11,3 km/h (2 Bft) 97,87 %
22.07.2016 17:02 27,3 C 53 % 1011,8 hPa 0,0 l/m 7,3 km/h (2 Bft) NO 48 2 min 0,381 mm 2,3 UV-I 558 W/m 16,9 C 27,1 C 12,9 km/h (3 Bft) 100,00 %
22.07.2016 17:04 27,6 C 52 % 1011,8 hPa 0,0 l/m 5,5 km/h (1 Bft) O-NO 57 2 min 0,000 mm 2,3 UV-I 557 W/m 16,8 C 27,6 C 8,0 km/h (2 Bft) 100,00 %
22.07.2016 17:06 27,7 C 53 % 1011,8 hPa 0,0 l/m 11,1 km/h (2 Bft) O-NO 57 2 min 0,000 mm 2,2 UV-I 559 W/m 17,2 C 27,0 C 16,1 km/h (3 Bft) 100,00 %
22.07.2016 17:08 27,8 C 52 % 1011,8 hPa 0,0 l/m 15,6 km/h (3 Bft) NO 55 2 min 0,000 mm 2,2 UV-I 549 W/m 17,0 C 26,6 C 24,1 km/h (4 Bft) 100,00 %
22.07.2016 17:10 27,8 C 52 % 1011,8 hPa 0,0 l/m 17,1 km/h (3 Bft) NO 40 2 min 0,000 mm 2,1 UV-I 528 W/m 17,0 C 26,5 C 24,1 km/h (4 Bft) 98,00 %
22.07.2016 17:12 27,7 C 51 % 1011,7 hPa 0,0 l/m 11,6 km/h (2 Bft) O-NO 65 2 min 0,000 mm 1,9 UV-I 464 W/m 16,6 C 26,9 C 16,1 km/h (3 Bft) 100,00 %
22.07.2016 17:14 27,5 C 51 % 1011,7 hPa 0,0 l/m 11,7 km/h (2 Bft) NO 52 0 min 0,000 mm 1,6 UV-I 240 W/m 16,4 C 26,7 C 19,3 km/h (3 Bft) 100,00 %
22.07.2016 17:16 27,3 C 54 % 1011,7 hPa 0,0 l/m 10,0 km/h (2 Bft) O-NO 77 0 min 0,000 mm 1,7 UV-I 197 W/m 17,2 C 26,7 C 16,1 km/h (3 Bft) 100,00 %
22.07.2016 17:18 27,3 C 52 % 1011,7 hPa 0,0 l/m 11,3 km/h (2 Bft) O-NO 65 2 min 0,000 mm 1,9 UV-I 483 W/m 16,6 C 26,5 C 19,3 km/h (3 Bft) 100,00 %
22.07.2016 17:20 27,3 C 53 % 1011,6 hPa 0,0 l/m 9,7 km/h (2 Bft) O-NO 76 2 min 0,000 mm 1,9 UV-I 487 W/m 16,9 C 26,7 C 14,5 km/h (3 Bft) 100,00 %
22.07.2016 17:22 27,4 C 52 % 1011,6 hPa 0,0 l/m 14,8 km/h (3 Bft) O-NO 74 2 min 0,000 mm 1,9 UV-I 481 W/m 16,7 C 26,2 C 20,9 km/h (4 Bft) 100,00 %
22.07.2016 17:24 27,4 C 53 % 1011,6 hPa 0,0 l/m 14,1 km/h (3 Bft) NO 43 2 min 0,000 mm 1,8 UV-I 473 W/m 17,0 C 26,3 C 19,3 km/h (3 Bft) 98,11 %
22.07.2016 17:26 27,4 C 52 % 1011,6 hPa 0,0 l/m 16,8 km/h (3 Bft) NO 53 2 min 0,000 mm 1,8 UV-I 465 W/m 16,7 C 26,0 C 29,0 km/h (5 Bft) 100,00 %
22.07.2016 17:28 27,4 C 53 % 1011,6 hPa 0,0 l/m 15,9 km/h (3 Bft) NO 36 2 min 0,000 mm 1,7 UV-I 451 W/m 17,0 C 26,1 C 22,5 km/h (4 Bft) 100,00 %
22.07.2016 17:30 27,4 C 54 % 1011,6 hPa 0,0 l/m 13,1 km/h (3 Bft) N-NO 30 2 min 0,000 mm 1,7 UV-I 452 W/m 17,3 C 26,4 C 19,3 km/h (3 Bft) 100,00 %
22.07.2016 17:32 27,5 C 53 % 1011,6 hPa 0,0 l/m 14,1 km/h (3 Bft) O-NO 57 2 min 0,000 mm 1,6 UV-I 436 W/m 17,0 C 26,4 C 20,9 km/h (4 Bft) 100,00 %
22.07.2016 17:34 27,4 C 52 % 1011,5 hPa 0,0 l/m 11,1 km/h (2 Bft) N-NO 30 2 min 0,000 mm 1,6 UV-I 418 W/m 16,7 C 26,7 C 19,3 km/h (3 Bft) 100,00 %
22.07.2016 17:36 27,5 C 53 % 1011,6 hPa 0,0 l/m 17,3 km/h (3 Bft) N-NO 26 2 min 0,000 mm 1,5 UV-I 411 W/m 17,0 C 26,1 C 25,7 km/h (4 Bft) 100,00 %
22.07.2016 17:38 27,4 C 52 % 1011,6 hPa 0,0 l/m 11,9 km/h (2 Bft) O-NO 64 2 min 0,000 mm 1,5 UV-I 400 W/m 16,7 C 26,6 C 24,1 km/h (4 Bft) 100,00 %
22.07.2016 17:40 27,4 C 53 % 1011,5 hPa 0,0 l/m 10,3 km/h (2 Bft) N-NO 30 2 min 0,000 mm 1,5 UV-I 402 W/m 17,0 C 26,8 C 17,7 km/h (3 Bft) 100,00 %
22.07.2016 17:42 27,4 C 52 % 1011,5 hPa 0,0 l/m 9,9 km/h (2 Bft) N-NO 28 2 min 0,000 mm 1,5 UV-I 421 W/m 16,7 C 26,8 C 17,7 km/h (3 Bft) 100,00 %
22.07.2016 17:44 27,5 C 51 % 1011,6 hPa 0,0 l/m 8,2 km/h (2 Bft) O-NO 76 2 min 0,000 mm 1,4 UV-I 419 W/m 16,4 C 27,2 C 14,5 km/h (3 Bft) 100,00 %
22.07.2016 17:46 27,5 C 52 % 1011,5 hPa 0,0 l/m 11,9 km/h (2 Bft) O-NO 71 2 min 0,000 mm 1,4 UV-I 419 W/m 16,7 C 26,7 C 17,7 km/h (3 Bft) 100,00 %
22.07.2016 17:48 27,4 C 52 % 1011,6 hPa 0,0 l/m 11,7 km/h (2 Bft) O-NO 71 2 min 0,000 mm 1,3 UV-I 386 W/m 16,7 C 26,6 C 16,1 km/h (3 Bft) 100,00 %
22.07.2016 17:50 27,5 C 51 % 1011,6 hPa 0,0 l/m 9,1 km/h (2 Bft) O-NO 61 2 min 0,000 mm 1,3 UV-I 381 W/m 16,4 C 27,1 C 14,5 km/h (3 Bft) 100,00 %
22.07.2016 17:52 27,4 C 51 % 1011,6 hPa 0,0 l/m 16,3 km/h (3 Bft) O-NO 60 2 min 0,000 mm 1,3 UV-I 378 W/m 16,3 C 26,1 C 22,5 km/h (4 Bft) 100,00 %
22.07.2016 17:54 27,4 C 51 % 1011,5 hPa 0,0 l/m 15,6 km/h (3 Bft) O 84 2 min 0,000 mm 1,2 UV-I 371 W/m 16,3 C 26,2 C 20,9 km/h (4 Bft) 100,00 %
22.07.2016 17:56 27,3 C 52 % 1011,5 hPa 0,0 l/m 13,8 km/h (3 Bft) O-NO 69 2 min 0,000 mm 1,2 UV-I 353 W/m 16,6 C 26,2 C 17,7 km/h (3 Bft) 100,00 %
22.07.2016 17:58 27,3 C 52 % 1011,4 hPa 0,0 l/m 11,8 km/h (2 Bft) O-NO 67 2 min 0,000 mm 1,2 UV-I 372 W/m 16,6 C 26,5 C 17,7 km/h (3 Bft) 100,00 %
22.07.2016 18:00 27,3 C 52 % 1011,4 hPa 0,0 l/m 9,6 km/h (2 Bft) N-NO 24 2 min 0,000 mm 1,2 UV-I 380 W/m 16,6 C 26,8 C 19,3 km/h (3 Bft) 100,00 %
22.07.2016 18:02 27,4 C 51 % 1011,5 hPa 0,0 l/m 11,6 km/h (2 Bft) O-NO 70 2 min 0,381 mm 1,1 UV-I 354 W/m 16,3 C 26,6 C 17,7 km/h (3 Bft) 97,87 %
22.07.2016 18:04 27,3 C 51 % 1011,5 hPa 0,0 l/m 10,5 km/h (2 Bft) O-NO 66 2 min 0,000 mm 1,1 UV-I 351 W/m 16,3 C 26,6 C 19,3 km/h (3 Bft) 98,00 %
22.07.2016 18:06 27,3 C 51 % 1011,4 hPa 0,0 l/m 9,3 km/h (2 Bft) NO 46 2 min 0,000 mm 1,0 UV-I 357 W/m 16,3 C 26,8 C 14,5 km/h (3 Bft) 96,23 %
22.07.2016 18:08 27,3 C 50 % 1011,5 hPa 0,0 l/m 10,0 km/h (2 Bft) O-NO 65 2 min 0,000 mm 1,0 UV-I 336 W/m 15,9 C 26,7 C 16,1 km/h (3 Bft) 97,56 %
22.07.2016 18:10 27,3 C 51 % 1011,4 hPa 0,0 l/m 8,1 km/h (2 Bft) NO 49 2 min 0,000 mm 0,9 UV-I 312 W/m 16,3 C 27,0 C 14,5 km/h (3 Bft) 95,45 %
22.07.2016 18:12 27,3 C 51 % 1011,4 hPa 0,0 l/m 10,4 km/h (2 Bft) O-NO 64 2 min 0,000 mm 0,9 UV-I 297 W/m 16,3 C 26,6 C 17,7 km/h (3 Bft) 98,00 %
22.07.2016 18:14 27,3 C 51 % 1011,4 hPa 0,0 l/m 12,5 km/h (3 Bft) O-NO 73 2 min 0,000 mm 0,8 UV-I 273 W/m 16,3 C 26,4 C 17,7 km/h (3 Bft) 98,00 %
22.07.2016 18:16 27,2 C 51 % 1011,5 hPa 0,0 l/m 9,4 km/h (2 Bft) O-NO 61 2 min 0,000 mm 0,8 UV-I 246 W/m 16,2 C 26,7 C 16,1 km/h (3 Bft) 95,74 %
22.07.2016 18:18 27,2 C 52 % 1011,5 hPa 0,0 l/m 8,7 km/h (2 Bft) NO 48 0 min 0,000 mm 0,7 UV-I 215 W/m 16,5 C 26,8 C 14,5 km/h (3 Bft) 98,00 %
22.07.2016 18:20 27,1 C 51 % 1011,5 hPa 0,0 l/m 8,6 km/h (2 Bft) O-NO 65 0 min 0,000 mm 0,7 UV-I 183 W/m 16,1 C 26,7 C 14,5 km/h (3 Bft) 94,74 %
22.07.2016 18:22 27,0 C 51 % 1011,5 hPa 0,0 l/m 5,4 km/h (1 Bft) NO 53 0 min 0,000 mm 0,6 UV-I 148 W/m 16,0 C 27,0 C 8,0 km/h (2 Bft) 97,62 %
22.07.2016 18:24 26,8 C 51 % 1011,5 hPa 0,0 l/m 11,1 km/h (2 Bft) O-NO 57 0 min 0,000 mm 0,6 UV-I 117 W/m 15,8 C 26,0 C 14,5 km/h (3 Bft) 96,36 %
22.07.2016 18:26 26,7 C 51 % 1011,5 hPa 0,0 l/m 7,2 km/h (2 Bft) O-NO 64 0 min 0,000 mm 0,5 UV-I 105 W/m 15,7 C 26,5 C 12,9 km/h (3 Bft) 98,00 %
22.07.2016 18:28 26,7 C 52 % 1011,5 hPa 0,0 l/m 6,1 km/h (2 Bft) O-NO 60 0 min 0,000 mm 0,5 UV-I 102 W/m 16,0 C 26,7 C 8,0 km/h (2 Bft) 97,92 %
22.07.2016 18:30 26,6 C 52 % 1011,5 hPa 0,0 l/m 8,8 km/h (2 Bft) O-NO 78 0 min 0,000 mm 0,5 UV-I 104 W/m 15,9 C 26,1 C 14,5 km/h (3 Bft) 97,87 %
22.07.2016 18:32 26,5 C 52 % 1011,4 hPa 0,0 l/m 8,9 km/h (2 Bft) O-NO 71 0 min 0,000 mm 0,5 UV-I 104 W/m 15,8 C 26,0 C 14,5 km/h (3 Bft) 95,65 %
22.07.2016 18:34 26,4 C 52 % 1011,4 hPa 0,0 l/m 9,3 km/h (2 Bft) NO 54 0 min 0,000 mm 0,5 UV-I 104 W/m 15,7 C 25,8 C 16,1 km/h (3 Bft) 100,00 %
22.07.2016 18:36 26,3 C 53 % 1011,5 hPa 0,0 l/m 7,4 km/h (2 Bft) NO 53 0 min 0,000 mm 0,5 UV-I 104 W/m 15,9 C 26,1 C 11,3 km/h (2 Bft) 98,00 %
22.07.2016 18:38 26,3 C 53 % 1011,5 hPa 0,0 l/m 5,8 km/h (2 Bft) O-NO 71 0 min 0,000 mm 0,1 UV-I 104 W/m 15,9 C 26,3 C 9,7 km/h (2 Bft) 100,00 %
22.07.2016 18:40 26,2 C 53 % 1011,6 hPa 0,0 l/m 5,3 km/h (1 Bft) NO 55 0 min 0,000 mm 0,0 UV-I 104 W/m 15,8 C 26,2 C 6,4 km/h (2 Bft) 100,00 %
22.07.2016 18:42 26,1 C 53 % 1011,7 hPa 0,0 l/m 5,4 km/h (1 Bft) O-NO 58 0 min 0,000 mm 0,0 UV-I 105 W/m 15,8 C 26,1 C 8,0 km/h (2 Bft) 100,00 %
22.07.2016 18:44 26,1 C 53 % 1011,8 hPa 0,0 l/m 5,4 km/h (1 Bft) NO 54 0 min 0,000 mm 0,0 UV-I 105 W/m 15,8 C 26,1 C 8,0 km/h (2 Bft) 95,74 %
22.07.2016 18:46 26,0 C 53 % 1011,7 hPa 0,0 l/m 5,7 km/h (1 Bft) O-NO 60 0 min 0,000 mm 0,0 UV-I 105 W/m 15,7 C 26,0 C 8,0 km/h (2 Bft) 100,00 %
22.07.2016 18:48 26,0 C 55 % 1011,8 hPa 0,0 l/m 5,1 km/h (1 Bft) O 87 0 min 0,000 mm 0,0 UV-I 105 W/m 16,2 C 26,0 C 8,0 km/h (2 Bft) 97,56 %
22.07.2016 18:50 25,9 C 55 % 1011,8 hPa 0,0 l/m 4,3 km/h (1 Bft) O 91 0 min 0,000 mm 0,0 UV-I 105 W/m 16,2 C 25,9 C 8,0 km/h (2 Bft) 96,23 %
22.07.2016 18:52 25,9 C 55 % 1011,8 hPa 0,0 l/m 2,1 km/h (1 Bft) O 88 0 min 0,000 mm 0,0 UV-I 105 W/m 16,2 C 25,9 C 3,2 km/h (1 Bft) 100,00 %
22.07.2016 18:54 25,8 C 55 % 1011,9 hPa 0,0 l/m 4,0 km/h (1 Bft) O-NO 69 0 min 0,000 mm 0,0 UV-I 104 W/m 16,1 C 25,8 C 6,4 km/h (2 Bft) 100,00 %
22.07.2016 18:56 25,8 C 55 % 1011,9 hPa 0,0 l/m 2,5 km/h (1 Bft) NO 55 0 min 0,000 mm 0,0 UV-I 101 W/m 16,1 C 25,8 C 4,8 km/h (1 Bft) 100,00 %
22.07.2016 18:58 25,8 C 55 % 1011,8 hPa 0,0 l/m 2,8 km/h (1 Bft) NO 54 0 min 0,000 mm 0,0 UV-I 97 W/m 16,1 C 25,8 C 6,4 km/h (2 Bft) 93,62 %
22.07.2016 19:00 25,7 C 56 % 1011,8 hPa 0,0 l/m 2,6 km/h (1 Bft) NO 54 0 min 0,177 mm 0,0 UV-I 91 W/m 16,2 C 25,7 C 4,8 km/h (1 Bft) 100,00 %
22.07.2016 19:02 25,7 C 57 % 1011,8 hPa 0,0 l/m 3,3 km/h (1 Bft) NO 54 0 min 0,000 mm 0,0 UV-I 85 W/m 16,5 C 25,7 C 4,8 km/h (1 Bft) 100,00 %
22.07.2016 19:04 25,6 C 58 % 1011,8 hPa 0,0 l/m 3,8 km/h (1 Bft) NO 51 0 min 0,000 mm 0,0 UV-I 81 W/m 16,7 C 25,6 C 6,4 km/h (2 Bft) 100,00 %
22.07.2016 19:06 25,4 C 58 % 1011,8 hPa 0,0 l/m 3,3 km/h (1 Bft) NO 38 0 min 0,000 mm 0,0 UV-I 75 W/m 16,5 C 25,4 C 6,4 km/h (2 Bft) 100,00 %
22.07.2016 19:08 25,3 C 58 % 1011,9 hPa 0,0 l/m 3,5 km/h (1 Bft) NO 42 0 min 0,000 mm 0,0 UV-I 71 W/m 16,4 C 25,3 C 6,4 km/h (2 Bft) 100,00 %
22.07.2016 19:10 25,3 C 58 % 1011,9 hPa 0,0 l/m 2,5 km/h (1 Bft) NO 42 0 min 0,000 mm 0,0 UV-I 65 W/m 16,4 C 25,3 C 3,2 km/h (1 Bft) 100,00 %
22.07.2016 19:12 25,3 C 58 % 1011,9 hPa 0,0 l/m 2,2 km/h (1 Bft) NO 49 0 min 0,000 mm 0,0 UV-I 61 W/m 16,4 C 25,3 C 4,8 km/h (1 Bft) 100,00 %
22.07.2016 19:14 25,3 C 58 % 1012,1 hPa 0,0 l/m 1,6 km/h (1 Bft) NO 52 0 min 0,000 mm 0,0 UV-I 55 W/m 16,4 C 25,3 C 3,2 km/h (1 Bft) 100,00 %
22.07.2016 19:16 25,2 C 59 % 1012,1 hPa 0,0 l/m 2,1 km/h (1 Bft) O-NO 65 0 min 0,000 mm 0,0 UV-I 49 W/m 16,6 C 25,2 C 4,8 km/h (1 Bft) 100,00 %
22.07.2016 19:18 25,1 C 60 % 1012,1 hPa 0,0 l/m 0,5 km/h (0 Bft) O-NO 65 0 min 0,000 mm 0,0 UV-I 45 W/m 16,8 C 25,1 C 1,6 km/h (1 Bft) 100,00 %
22.07.2016 19:20 25,1 C 58 % 1012,1 hPa 0,0 l/m 0,1 km/h (0 Bft) O-NO 65 0 min 0,000 mm 0,0 UV-I 42 W/m 16,2 C 25,1 C 1,6 km/h (1 Bft) 100,00 %
22.07.2016 19:22 25,2 C 57 % 1012,1 hPa 0,0 l/m 0,0 km/h (0 Bft) O-NO 65 0 min 0,000 mm 0,0 UV-I 39 W/m 16,1 C 25,2 C 1,6 km/h (1 Bft) 100,00 %
22.07.2016 19:24 25,2 C 57 % 1012,2 hPa 0,0 l/m 0,0 km/h (0 Bft) O-NO 65 0 min 0,000 mm 0,0 UV-I 36 W/m 16,1 C 25,2 C 0,0 km/h (0 Bft) 100,00 %
22.07.2016 19:26 25,2 C 57 % 1012,1 hPa 0,0 l/m 0,8 km/h (0 Bft) O-NO 65 0 min 0,000 mm 0,0 UV-I 33 W/m 16,1 C 25,2 C 1,6 km/h (1 Bft) 100,00 %
22.07.2016 19:28 25,2 C 60 % 1012,2 hPa 0,0 l/m 1,5 km/h (1 Bft) O-NO 65 0 min 0,000 mm 0,0 UV-I 32 W/m 16,9 C 25,2 C 3,2 km/h (1 Bft) 100,00 %
22.07.2016 19:30 25,1 C 63 % 1012,2 hPa 0,0 l/m 1,8 km/h (1 Bft) O-NO 65 0 min 0,000 mm 0,0 UV-I 30 W/m 17,5 C 25,1 C 3,2 km/h (1 Bft) 97,87 %
22.07.2016 19:32 24,8 C 65 % 1012,2 hPa 0,0 l/m 1,1 km/h (1 Bft) O-NO 65 0 min 0,000 mm 0,0 UV-I 30 W/m 17,8 C 24,8 C 1,6 km/h (1 Bft) 96,23 %
22.07.2016 19:34 24,6 C 62 % 1012,1 hPa 0,0 l/m 0,3 km/h (0 Bft) O-NO 65 0 min 0,000 mm 0,0 UV-I 27 W/m 16,8 C 24,6 C 1,6 km/h (1 Bft) 100,00 %
22.07.2016 19:36 24,6 C 63 % 1012,1 hPa 0,0 l/m 0,0 km/h (0 Bft) O-NO 65 0 min 0,000 mm 0,0 UV-I 26 W/m 17,1 C 24,6 C 1,6 km/h (1 Bft) 93,62 %
22.07.2016 19:38 24,7 C 61 % 1012,2 hPa 0,0 l/m 0,0 km/h (0 Bft) O-NO 65 0 min 0,000 mm 0,0 UV-I 25 W/m 16,7 C 24,7 C 0,0 km/h (0 Bft) 100,00 %
22.07.2016 19:40 24,7 C 64 % 1012,2 hPa 0,0 l/m 0,0 km/h (0 Bft) O-NO 65 0 min 0,000 mm 0,0 UV-I 23 W/m 17,4 C 24,7 C 0,0 km/h (0 Bft) 93,62 %
22.07.2016 19:42 24,7 C 63 % 1012,2 hPa 0,0 l/m 0,0 km/h (0 Bft) O-NO 65 0 min 0,000 mm 0,0 UV-I 21 W/m 17,2 C 24,7 C 0,0 km/h (0 Bft) 100,00 %
22.07.2016 19:44 24,6 C 66 % 1012,3 hPa 0,0 l/m 0,0 km/h (0 Bft) O-NO 65 0 min 0,000 mm 0,0 UV-I 20 W/m 17,8 C 24,6 C 0,0 km/h (0 Bft) 97,87 %
22.07.2016 19:46 24,4 C 65 % 1012,3 hPa 0,0 l/m 0,0 km/h (0 Bft) O-NO 65 0 min 0,000 mm 0,0 UV-I 19 W/m 17,4 C 24,4 C 0,0 km/h (0 Bft) 100,00 %
22.07.2016 19:48 24,3 C 66 % 1012,4 hPa 0,0 l/m 0,1 km/h (0 Bft) O-NO 65 0 min 0,000 mm 0,0 UV-I 17 W/m 17,5 C 24,3 C 1,6 km/h (1 Bft) 100,00 %
22.07.2016 19:50 24,1 C 67 % 1012,5 hPa 0,0 l/m 0,0 km/h (0 Bft) O-NO 65 0 min 0,000 mm 0,0 UV-I 15 W/m 17,6 C 24,1 C 0,0 km/h (0 Bft) 100,00 %
22.07.2016 19:52 23,8 C 67 % 1012,5 hPa 0,0 l/m 0,0 km/h (0 Bft) O-NO 65 0 min 0,000 mm 0,0 UV-I 13 W/m 17,3 C 23,8 C 0,0 km/h (0 Bft) 98,11 %
22.07.2016 19:54 23,7 C 66 % 1012,5 hPa 0,0 l/m 0,0 km/h (0 Bft) O-NO 65 0 min 0,000 mm 0,0 UV-I 12 W/m 17,0 C 23,7 C 0,0 km/h (0 Bft) 97,37 %
22.07.2016 19:56 23,7 C 64 % 1012,5 hPa 0,0 l/m 0,0 km/h (0 Bft) O-NO 65 0 min 0,000 mm 0,0 UV-I 11 W/m 16,5 C 23,7 C 0,0 km/h (0 Bft) 96,00 %
22.07.2016 19:58 23,6 C 64 % 1012,5 hPa 0,0 l/m 0,1 km/h (0 Bft) O-NO 65 0 min 0,000 mm 0,0 UV-I 11 W/m 16,4 C 23,6 C 1,6 km/h (1 Bft) 97,87 %
22.07.2016 20:00 23,7 C 66 % 1012,5 hPa 0,0 l/m 0,0 km/h (0 Bft) O-NO 65 0 min 0,000 mm 0,0 UV-I 9 W/m 17,0 C 23,7 C 1,6 km/h (1 Bft) 96,00 %
22.07.2016 20:02 23,7 C 67 % 1012,5 hPa 0,0 l/m 0,0 km/h (0 Bft) O-NO 65 0 min 0,026 mm 0,0 UV-I 9 W/m 17,2 C 23,7 C 0,0 km/h (0 Bft) 97,87 %
22.07.2016 20:04 23,7 C 68 % 1012,5 hPa 0,0 l/m 0,0 km/h (0 Bft) O-NO 65 0 min 0,000 mm 0,0 UV-I 7 W/m 17,4 C 23,7 C 0,0 km/h (0 Bft) 98,00 %
22.07.2016 20:06 23,6 C 68 % 1012,5 hPa 0,0 l/m 0,0 km/h (0 Bft) O-NO 65 0 min 0,000 mm 0,0 UV-I 7 W/m 17,3 C 23,6 C 0,0 km/h (0 Bft) 94,74 %
22.07.2016 20:08 23,4 C 69 % 1012,4 hPa 0,0 l/m 0,0 km/h (0 Bft) O-NO 65 0 min 0,000 mm 0,0 UV-I 7 W/m 17,4 C 23,4 C 0,0 km/h (0 Bft) 96,00 %
22.07.2016 20:10 23,3 C 68 % 1012,4 hPa 0,0 l/m 0,0 km/h (0 Bft) O-NO 65 0 min 0,000 mm 0,0 UV-I 7 W/m 17,1 C 23,3 C 0,0 km/h (0 Bft) 98,00 %
22.07.2016 20:12 23,3 C 68 % 1012,3 hPa 0,0 l/m 0,0 km/h (0 Bft) O-NO 65 0 min 0,000 mm 0,0 UV-I 7 W/m 17,1 C 23,3 C 0,0 km/h (0 Bft) 96,00 %
22.07.2016 20:14 23,3 C 67 % 1012,4 hPa 0,0 l/m 0,0 km/h (0 Bft) O-NO 65 0 min 0,000 mm 0,0 UV-I 5 W/m 16,8 C 23,3 C 1,6 km/h (1 Bft) 95,74 %
22.07.2016 20:16 23,4 C 66 % 1012,4 hPa 0,0 l/m 0,8 km/h (0 Bft) O-NO 71 0 min 0,000 mm 0,0 UV-I 5 W/m 16,7 C 23,4 C 3,2 km/h (1 Bft) 97,14 %
22.07.2016 20:18 23,3 C 66 % 1012,5 hPa 0,0 l/m 3,0 km/h (1 Bft) O-SO 108 0 min 0,000 mm 0,0 UV-I 2 W/m 16,6 C 23,3 C 4,8 km/h (1 Bft) 98,11 %
22.07.2016 20:20 23,3 C 65 % 1012,5 hPa 0,0 l/m 4,8 km/h (1 Bft) O-SO 119 0 min 0,000 mm 0,0 UV-I 0 W/m 16,3 C 23,3 C 6,4 km/h (2 Bft) 98,00 %
22.07.2016 20:22 23,3 C 66 % 1012,6 hPa 0,0 l/m 3,4 km/h (1 Bft) SO 126 0 min 0,000 mm 0,0 UV-I 0 W/m 16,6 C 23,3 C 4,8 km/h (1 Bft) 97,22 %
22.07.2016 20:24 23,2 C 67 % 1012,7 hPa 0,0 l/m 5,4 km/h (1 Bft) S-SO 154 0 min 0,000 mm 0,0 UV-I 0 W/m 16,7 C 23,2 C 8,0 km/h (2 Bft) 98,00 %
22.07.2016 20:26 23,2 C 66 % 1012,8 hPa 0,0 l/m 10,3 km/h (2 Bft) S-SO 150 0 min 0,000 mm 0,0 UV-I 0 W/m 16,5 C 22,1 C 20,9 km/h (4 Bft) 95,74 %
22.07.2016 20:28 23,3 C 65 % 1012,8 hPa 0,0 l/m 11,1 km/h (2 Bft) S-SO 165 0 min 0,000 mm 0,0 UV-I 0 W/m 16,3 C 22,0 C 27,4 km/h (4 Bft) 95,74 %
22.07.2016 20:30 23,3 C 64 % 1012,8 hPa 0,0 l/m 12,8 km/h (3 Bft) S 173 0 min 0,000 mm 0,0 UV-I 0 W/m 16,1 C 21,7 C 29,0 km/h (5 Bft) 100,00 %
22.07.2016 20:32 23,3 C 63 % 1012,9 hPa 0,0 l/m 8,0 km/h (2 Bft) S-SO 152 0 min 0,000 mm 0,0 UV-I 0 W/m 15,9 C 22,8 C 14,5 km/h (3 Bft) 98,21 %
22.07.2016 20:34 23,3 C 63 % 1012,9 hPa 0,0 l/m 8,7 km/h (2 Bft) SW 215 0 min 0,000 mm 0,0 UV-I 0 W/m 15,9 C 22,6 C 17,7 km/h (3 Bft) 100,00 %
22.07.2016 20:36 23,3 C 63 % 1012,9 hPa 0,0 l/m 7,8 km/h (2 Bft) S 169 0 min 0,000 mm 0,0 UV-I 0 W/m 15,9 C 22,9 C 14,5 km/h (3 Bft) 98,00 %
22.07.2016 20:38 23,3 C 63 % 1013,0 hPa 0,0 l/m 9,0 km/h (2 Bft) S-SW 196 0 min 0,000 mm 0,0 UV-I 0 W/m 15,9 C 22,5 C 17,7 km/h (3 Bft) 100,00 %
22.07.2016 20:40 23,2 C 64 % 1013,1 hPa 0,0 l/m 13,4 km/h (3 Bft) S 182 0 min 0,000 mm 0,0 UV-I 0 W/m 16,0 C 21,4 C 20,9 km/h (4 Bft) 97,37 %
22.07.2016 20:42 23,1 C 64 % 1013,1 hPa 0,0 l/m 15,6 km/h (3 Bft) S-SO 161 0 min 0,000 mm 0,0 UV-I 0 W/m 15,9 C 20,9 C 22,5 km/h (4 Bft) 98,00 %
22.07.2016 20:44 22,9 C 65 % 1013,1 hPa 0,0 l/m 14,4 km/h (3 Bft) S-SW 198 0 min 0,000 mm 0,0 UV-I 0 W/m 16,0 C 20,9 C 20,9 km/h (4 Bft) 100,00 %
22.07.2016 20:46 22,8 C 66 % 1013,0 hPa 0,0 l/m 12,0 km/h (2 Bft) SW 221 0 min 0,000 mm 0,0 UV-I 0 W/m 16,1 C 21,3 C 19,3 km/h (3 Bft) 95,12 %
22.07.2016 20:48 22,7 C 67 % 1013,0 hPa 0,0 l/m 10,4 km/h (2 Bft) S-SO 163 0 min 0,000 mm 0,0 UV-I 0 W/m 16,2 C 21,5 C 17,7 km/h (3 Bft) 100,00 %
22.07.2016 20:50 22,6 C 68 % 1013,0 hPa 0,0 l/m 10,9 km/h (2 Bft) S-SO 167 0 min 0,000 mm 0,0 UV-I 0 W/m 16,4 C 21,3 C 20,9 km/h (4 Bft) 100,00 %
22.07.2016 20:52 22,5 C 69 % 1012,9 hPa 0,0 l/m 10,3 km/h (2 Bft) SO 140 0 min 0,000 mm 0,0 UV-I 0 W/m 16,5 C 21,3 C 17,7 km/h (3 Bft) 96,23 %
22.07.2016 20:54 22,4 C 70 % 1012,8 hPa 0,0 l/m 11,2 km/h (2 Bft) S-SO 159 0 min 0,000 mm 0,0 UV-I 0 W/m 16,7 C 21,0 C 24,1 km/h (4 Bft) 100,00 %
22.07.2016 20:56 22,3 C 71 % 1012,7 hPa 0,0 l/m 14,4 km/h (3 Bft) S-SW 201 0 min 0,000 mm 0,0 UV-I 0 W/m 16,8 C 20,2 C 24,1 km/h (4 Bft) 100,00 %
22.07.2016 20:58 22,2 C 71 % 1012,7 hPa 0,0 l/m 7,6 km/h (2 Bft) S 175 0 min 0,000 mm 0,0 UV-I 0 W/m 16,7 C 21,8 C 16,1 km/h (3 Bft) 100,00 %
22.07.2016 21:00 22,1 C 72 % 1012,8 hPa 0,0 l/m 8,9 km/h (2 Bft) S 178 0 min 0,051 mm 0,0 UV-I 0 W/m 16,8 C 21,3 C 16,1 km/h (3 Bft) 100,00 %
22.07.2016 21:02 22,0 C 74 % 1012,8 hPa 0,0 l/m 11,0 km/h (2 Bft) S-SW 205 0 min 0,000 mm 0,0 UV-I 0 W/m 17,1 C 20,6 C 16,1 km/h (3 Bft) 100,00 %
22.07.2016 21:04 21,9 C 75 % 1012,8 hPa 0,0 l/m 8,8 km/h (2 Bft) S-SW 207 0 min 0,000 mm 0,0 UV-I 0 W/m 17,3 C 21,1 C 14,5 km/h (3 Bft) 96,43 %
22.07.2016 21:06 21,7 C 75 % 1012,8 hPa 0,0 l/m 8,2 km/h (2 Bft) SW 215 0 min 0,000 mm 0,0 UV-I 0 W/m 17,1 C 21,1 C 14,5 km/h (3 Bft) 100,00 %
22.07.2016 21:08 21,6 C 77 % 1012,8 hPa 0,0 l/m 5,9 km/h (2 Bft) S 184 0 min 0,000 mm 0,0 UV-I 0 W/m 17,4 C 21,6 C 9,7 km/h (2 Bft) 100,00 %
22.07.2016 21:10 21,4 C 78 % 1012,7 hPa 0,0 l/m 9,0 km/h (2 Bft) S 187 0 min 0,000 mm 0,0 UV-I 0 W/m 17,4 C 20,5 C 14,5 km/h (3 Bft) 100,00 %
22.07.2016 21:12 21,2 C 79 % 1012,6 hPa 0,0 l/m 10,5 km/h (2 Bft) S-SW 204 0 min 0,000 mm 0,0 UV-I 0 W/m 17,4 C 19,8 C 16,1 km/h (3 Bft) 100,00 %
22.07.2016 21:14 21,0 C 81 % 1012,7 hPa 0,0 l/m 10,1 km/h (2 Bft) S-SO 166 0 min 0,000 mm 0,0 UV-I 0 W/m 17,6 C 19,7 C 16,1 km/h (3 Bft) 100,00 %
22.07.2016 21:16 20,8 C 82 % 1012,7 hPa 0,0 l/m 6,2 km/h (2 Bft) S 171 0 min 0,000 mm 0,0 UV-I 0 W/m 17,6 C 20,8 C 12,9 km/h (3 Bft) 100,00 %
22.07.2016 21:18 20,6 C 83 % 1012,7 hPa 0,0 l/m 5,4 km/h (1 Bft) S-SO 148 0 min 0,000 mm 0,0 UV-I 0 W/m 17,6 C 20,6 C 11,3 km/h (2 Bft) 100,00 %
22.07.2016 21:20 20,4 C 84 % 1012,7 hPa 0,2 l/m 7,0 km/h (2 Bft) S-SO 157 0 min 0,000 mm 0,0 UV-I 0 W/m 17,6 C 20,2 C 14,5 km/h (3 Bft) 100,00 %
22.07.2016 21:22 20,3 C 84 % 1012,6 hPa 0,0 l/m 6,6 km/h (2 Bft) SO 130 0 min 0,000 mm 0,0 UV-I 0 W/m 17,5 C 20,2 C 12,9 km/h (3 Bft) 100,00 %
22.07.2016 21:24 20,2 C 85 % 1012,7 hPa 0,2 l/m 6,9 km/h (2 Bft) SO 142 0 min 0,000 mm 0,0 UV-I 0 W/m 17,6 C 20,0 C 12,9 km/h (3 Bft) 100,00 %
22.07.2016 21:26 20,1 C 85 % 1012,7 hPa 0,2 l/m 9,6 km/h (2 Bft) S-SO 161 0 min 0,000 mm 0,0 UV-I 0 W/m 17,5 C 18,9 C 19,3 km/h (3 Bft) 100,00 %
22.07.2016 21:28 19,9 C 86 % 1012,6 hPa 0,2 l/m 6,8 km/h (2 Bft) S 169 0 min 0,000 mm 0,0 UV-I 0 W/m 17,5 C 19,7 C 16,1 km/h (3 Bft) 95,74 %
22.07.2016 21:30 19,8 C 87 % 1012,6 hPa 0,2 l/m 6,0 km/h (2 Bft) S-SO 151 0 min 0,000 mm 0,0 UV-I 0 W/m 17,6 C 19,8 C 11,3 km/h (2 Bft) 100,00 %
22.07.2016 21:32 19,6 C 88 % 1012,5 hPa 0,2 l/m 7,6 km/h (2 Bft) SO 126 0 min 0,000 mm 0,0 UV-I 0 W/m 17,6 C 19,1 C 12,9 km/h (3 Bft) 100,00 %
22.07.2016 21:34 19,5 C 88 % 1012,5 hPa 0,0 l/m 5,2 km/h (1 Bft) S-SO 155 0 min 0,000 mm 0,0 UV-I 0 W/m 17,5 C 19,5 C 8,0 km/h (2 Bft) 97,62 %
22.07.2016 21:36 19,3 C 88 % 1012,5 hPa 0,0 l/m 6,3 km/h (2 Bft) S-SO 165 0 min 0,000 mm 0,0 UV-I 0 W/m 17,3 C 19,3 C 12,9 km/h (3 Bft) 100,00 %
22.07.2016 21:38 19,3 C 89 % 1012,6 hPa 0,0 l/m 8,7 km/h (2 Bft) S 172 0 min 0,000 mm 0,0 UV-I 0 W/m 17,4 C 18,3 C 14,5 km/h (3 Bft) 100,00 %
22.07.2016 21:40 19,2 C 89 % 1012,6 hPa 0,2 l/m 6,7 km/h (2 Bft) O-SO 103 0 min 0,000 mm 0,0 UV-I 0 W/m 17,3 C 19,1 C 11,3 km/h (2 Bft) 97,67 %
22.07.2016 21:42 19,2 C 89 % 1012,6 hPa 0,0 l/m 3,0 km/h (1 Bft) S-SO 160 0 min 0,000 mm 0,0 UV-I 0 W/m 17,3 C 19,2 C 6,4 km/h (2 Bft) 100,00 %
22.07.2016 21:44 19,1 C 90 % 1012,6 hPa 0,0 l/m 4,9 km/h (1 Bft) S-SW 208 0 min 0,000 mm 0,0 UV-I 0 W/m 17,4 C 19,1 C 11,3 km/h (2 Bft) 100,00 %
22.07.2016 21:46 19,1 C 90 % 1012,7 hPa 0,0 l/m 3,9 km/h (1 Bft) SW 224 0 min 0,000 mm 0,0 UV-I 0 W/m 17,4 C 19,1 C 6,4 km/h (2 Bft) 98,00 %
22.07.2016 21:48 19,1 C 91 % 1012,7 hPa 0,0 l/m 2,7 km/h (1 Bft) SW 224 0 min 0,000 mm 0,0 UV-I 0 W/m 17,6 C 19,1 C 3,2 km/h (1 Bft) 100,00 %
22.07.2016 21:50 19,1 C 91 % 1012,7 hPa 0,2 l/m 1,9 km/h (1 Bft) S 188 0 min 0,000 mm 0,0 UV-I 0 W/m 17,6 C 19,1 C 4,8 km/h (1 Bft) 100,00 %
22.07.2016 21:52 19,0 C 91 % 1012,9 hPa 0,0 l/m 2,0 km/h (1 Bft) S 188 0 min 0,000 mm 0,0 UV-I 0 W/m 17,5 C 19,0 C 4,8 km/h (1 Bft) 100,00 %
22.07.2016 21:54 18,9 C 91 % 1012,9 hPa 0,0 l/m 0,7 km/h (0 Bft) S 188 0 min 0,000 mm 0,0 UV-I 0 W/m 17,4 C 18,9 C 1,6 km/h (1 Bft) 97,37 %
22.07.2016 21:56 18,9 C 91 % 1013,0 hPa 0,0 l/m 3,2 km/h (1 Bft) S-SW 192 0 min 0,000 mm 0,0 UV-I 0 W/m 17,4 C 18,9 C 6,4 km/h (2 Bft) 97,87 %
22.07.2016 21:58 18,9 C 91 % 1013,2 hPa 0,0 l/m 3,2 km/h (1 Bft) S-SW 201 0 min 0,000 mm 0,0 UV-I 0 W/m 17,4 C 18,9 C 4,8 km/h (1 Bft) 98,00 %
22.07.2016 22:00 18,9 C 92 % 1013,3 hPa 0,0 l/m 5,9 km/h (2 Bft) SW 236 0 min 0,000 mm 0,0 UV-I 0 W/m 17,6 C 18,9 C 11,3 km/h (2 Bft) 98,11 %
22.07.2016 22:02 18,9 C 92 % 1013,5 hPa 0,0 l/m 9,3 km/h (2 Bft) SW 225 0 min 0,025 mm 0,0 UV-I 0 W/m 17,6 C 17,7 C 14,5 km/h (3 Bft) 97,37 %
22.07.2016 22:04 18,9 C 92 % 1013,5 hPa 0,0 l/m 8,4 km/h (2 Bft) W 261 0 min 0,000 mm 0,0 UV-I 0 W/m 17,6 C 18,0 C 16,1 km/h (3 Bft) 96,23 %
22.07.2016 22:06 18,8 C 92 % 1013,6 hPa 0,0 l/m 4,7 km/h (1 Bft) S-SO 161 0 min 0,000 mm 0,0 UV-I 0 W/m 17,5 C 18,8 C 11,3 km/h (2 Bft) 96,00 %
22.07.2016 22:08 18,8 C 92 % 1013,5 hPa 0,2 l/m 6,3 km/h (2 Bft) S 186 0 min 0,000 mm 0,0 UV-I 0 W/m 17,5 C 18,8 C 12,9 km/h (3 Bft) 97,37 %
22.07.2016 22:10 18,8 C 93 % 1013,6 hPa 0,0 l/m 6,8 km/h (2 Bft) S 187 0 min 0,000 mm 0,0 UV-I 0 W/m 17,6 C 18,6 C 11,3 km/h (2 Bft) 94,00 %
22.07.2016 22:12 18,8 C 93 % 1013,6 hPa 0,0 l/m 4,2 km/h (1 Bft) S 172 0 min 0,000 mm 0,0 UV-I 0 W/m 17,6 C 18,8 C 8,0 km/h (2 Bft) 96,00 %
22.07.2016 22:14 18,8 C 93 % 1013,6 hPa 0,0 l/m 4,9 km/h (1 Bft) S 172 0 min 0,000 mm 0,0 UV-I 0 W/m 17,6 C 18,8 C 8,0 km/h (2 Bft) 97,56 %
22.07.2016 22:16 18,8 C 93 % 1013,6 hPa 0,2 l/m 4,2 km/h (1 Bft) S-SO 149 0 min 0,000 mm 0,0 UV-I 0 W/m 17,6 C 18,8 C 9,7 km/h (2 Bft) 96,23 %
22.07.2016 22:18 18,8 C 92 % 1013,5 hPa 0,0 l/m 3,9 km/h (1 Bft) S-SO 157 0 min 0,000 mm 0,0 UV-I 0 W/m 17,5 C 18,8 C 6,4 km/h (2 Bft) 97,87 %
22.07.2016 22:20 18,8 C 92 % 1013,5 hPa 0,0 l/m 3,5 km/h (1 Bft) S-SO 168 0 min 0,000 mm 0,0 UV-I 0 W/m 17,5 C 18,8 C 8,0 km/h (2 Bft) 97,22 %
22.07.2016 22:22 18,8 C 92 % 1013,5 hPa 0,0 l/m 5,4 km/h (1 Bft) S 174 0 min 0,000 mm 0,0 UV-I 0 W/m 17,5 C 18,8 C 9,7 km/h (2 Bft) 98,11 %
22.07.2016 22:24 18,8 C 92 % 1013,5 hPa 0,0 l/m 4,7 km/h (1 Bft) S 173 0 min 0,000 mm 0,0 UV-I 0 W/m 17,5 C 18,8 C 9,7 km/h (2 Bft) 96,00 %
22.07.2016 22:26 18,8 C 92 % 1013,5 hPa 0,0 l/m 3,6 km/h (1 Bft) S-SO 154 0 min 0,000 mm 0,0 UV-I 0 W/m 17,5 C 18,8 C 9,7 km/h (2 Bft) 98,00 %
22.07.2016 22:28 18,8 C 92 % 1013,4 hPa 0,0 l/m 3,1 km/h (1 Bft) SO 145 0 min 0,000 mm 0,0 UV-I 0 W/m 17,5 C 18,8 C 6,4 km/h (2 Bft) 97,37 %
22.07.2016 22:30 18,8 C 91 % 1013,4 hPa 0,0 l/m 5,8 km/h (2 Bft) SO 126 0 min 0,000 mm 0,0 UV-I 0 W/m 17,3 C 18,8 C 8,0 km/h (2 Bft) 97,73 %
22.07.2016 22:32 18,8 C 92 % 1013,2 hPa 0,0 l/m 5,3 km/h (1 Bft) SO 129 0 min 0,000 mm 0,0 UV-I 0 W/m 17,5 C 18,8 C 8,0 km/h (2 Bft) 100,00 %
22.07.2016 22:34 18,8 C 92 % 1013,2 hPa 0,0 l/m 1,7 km/h (1 Bft) SO 129 0 min 0,000 mm 0,0 UV-I 0 W/m 17,5 C 18,8 C 3,2 km/h (1 Bft) 100,00 %
22.07.2016 22:36 18,8 C 92 % 1013,3 hPa 0,0 l/m 3,6 km/h (1 Bft) SW 229 0 min 0,000 mm 0,0 UV-I 0 W/m 17,5 C 18,8 C 6,4 km/h (2 Bft) 98,11 %
22.07.2016 22:38 18,8 C 92 % 1013,4 hPa 0,0 l/m 4,6 km/h (1 Bft) S-SW 209 0 min 0,000 mm 0,0 UV-I 0 W/m 17,5 C 18,8 C 6,4 km/h (2 Bft) 95,74 %
22.07.2016 22:40 18,7 C 92 % 1013,4 hPa 0,0 l/m 4,6 km/h (1 Bft) S-SW 202 0 min 0,000 mm 0,0 UV-I 0 W/m 17,4 C 18,7 C 8,0 km/h (2 Bft) 100,00 %
22.07.2016 22:42 18,7 C 92 % 1013,4 hPa 0,0 l/m 4,4 km/h (1 Bft) SW 225 0 min 0,000 mm 0,0 UV-I 0 W/m 17,4 C 18,7 C 6,4 km/h (2 Bft) 100,00 %
22.07.2016 22:44 18,7 C 93 % 1013,4 hPa 0,0 l/m 5,5 km/h (1 Bft) W-SW 244 0 min 0,000 mm 0,0 UV-I 0 W/m 17,5 C 18,7 C 8,0 km/h (2 Bft) 97,56 %
22.07.2016 22:46 18,7 C 93 % 1013,4 hPa 0,0 l/m 2,6 km/h (1 Bft) W 261 0 min 0,000 mm 0,0 UV-I 0 W/m 17,5 C 18,7 C 6,4 km/h (2 Bft) 100,00 %
22.07.2016 22:48 18,6 C 93 % 1013,4 hPa 0,0 l/m 3,7 km/h (1 Bft) SW 234 0 min 0,000 mm 0,0 UV-I 0 W/m 17,4 C 18,6 C 4,8 km/h (1 Bft) 100,00 %
22.07.2016 22:50 18,6 C 93 % 1013,5 hPa 0,0 l/m 4,7 km/h (1 Bft) SW 227 0 min 0,000 mm 0,0 UV-I 0 W/m 17,4 C 18,6 C 6,4 km/h (2 Bft) 100,00 %
22.07.2016 22:52 18,6 C 93 % 1013,4 hPa 0,0 l/m 3,7 km/h (1 Bft) S 190 0 min 0,000 mm 0,0 UV-I 0 W/m 17,4 C 18,6 C 4,8 km/h (1 Bft) 97,92 %
22.07.2016 22:54 18,6 C 93 % 1013,4 hPa 0,0 l/m 4,3 km/h (1 Bft) SW 236 0 min 0,000 mm 0,0 UV-I 0 W/m 17,4 C 18,6 C 6,4 km/h (2 Bft) 98,00 %
22.07.2016 22:56 18,6 C 93 % 1013,5 hPa 0,0 l/m 4,3 km/h (1 Bft) SW 236 0 min 0,000 mm 0,0 UV-I 0 W/m 17,4 C 18,6 C 6,4 km/h (2 Bft) 100,00 %
22.07.2016 22:58 18,6 C 93 % 1013,5 hPa 0,0 l/m 4,0 km/h (1 Bft) SW 229 0 min 0,000 mm 0,0 UV-I 0 W/m 17,4 C 18,6 C 6,4 km/h (2 Bft) 100,00 %
22.07.2016 23:00 18,5 C 93 % 1013,4 hPa 0,0 l/m 2,5 km/h (1 Bft) S-SW 208 0 min 0,000 mm 0,0 UV-I 0 W/m 17,3 C 18,5 C 6,4 km/h (2 Bft) 97,96 %
22.07.2016 23:02 18,5 C 93 % 1013,4 hPa 0,0 l/m 2,8 km/h (1 Bft) S-SW 207 0 min 0,000 mm 0,0 UV-I 0 W/m 17,3 C 18,5 C 4,8 km/h (1 Bft) 100,00 %
22.07.2016 23:04 18,5 C 93 % 1013,4 hPa 0,0 l/m 1,9 km/h (1 Bft) S-SW 207 0 min 0,000 mm 0,0 UV-I 0 W/m 17,3 C 18,5 C 4,8 km/h (1 Bft) 100,00 %
22.07.2016 23:06 18,5 C 93 % 1013,5 hPa 0,0 l/m 0,3 km/h (0 Bft) S-SW 207 0 min 0,000 mm 0,0 UV-I 0 W/m 17,3 C 18,5 C 3,2 km/h (1 Bft) 100,00 %
22.07.2016 23:08 18,4 C 93 % 1013,5 hPa 0,0 l/m 1,3 km/h (1 Bft) S-SW 206 0 min 0,000 mm 0,0 UV-I 0 W/m 17,2 C 18,4 C 3,2 km/h (1 Bft) 100,00 %
22.07.2016 23:10 18,4 C 93 % 1013,4 hPa 0,0 l/m 4,0 km/h (1 Bft) S 187 0 min 0,000 mm 0,0 UV-I 0 W/m 17,2 C 18,4 C 6,4 km/h (2 Bft) 100,00 %
22.07.2016 23:12 18,4 C 93 % 1013,5 hPa 0,0 l/m 3,3 km/h (1 Bft) S 190 0 min 0,000 mm 0,0 UV-I 0 W/m 17,2 C 18,4 C 4,8 km/h (1 Bft) 100,00 %
22.07.2016 23:14 18,4 C 93 % 1013,4 hPa 0,0 l/m 4,4 km/h (1 Bft) S-SW 195 0 min 0,000 mm 0,0 UV-I 0 W/m 17,2 C 18,4 C 6,4 km/h (2 Bft) 100,00 %
22.07.2016 23:16 18,4 C 93 % 1013,5 hPa 0,0 l/m 3,8 km/h (1 Bft) S 179 0 min 0,000 mm 0,0 UV-I 0 W/m 17,2 C 18,4 C 6,4 km/h (2 Bft) 100,00 %
22.07.2016 23:18 18,4 C 93 % 1013,5 hPa 0,0 l/m 3,0 km/h (1 Bft) S-SW 203 0 min 0,000 mm 0,0 UV-I 0 W/m 17,2 C 18,4 C 6,4 km/h (2 Bft) 97,87 %
22.07.2016 23:20 18,4 C 93 % 1013,4 hPa 0,0 l/m 1,0 km/h (0 Bft) S-SW 202 0 min 0,000 mm 0,0 UV-I 0 W/m 17,2 C 18,4 C 3,2 km/h (1 Bft) 97,37 %
22.07.2016 23:22 18,4 C 93 % 1013,4 hPa 0,0 l/m 0,9 km/h (0 Bft) S-SW 202 0 min 0,000 mm 0,0 UV-I 0 W/m 17,2 C 18,4 C 3,2 km/h (1 Bft) 100,00 %
22.07.2016 23:24 18,4 C 93 % 1013,5 hPa 0,0 l/m 0,5 km/h (0 Bft) S-SW 202 0 min 0,000 mm 0,0 UV-I 0 W/m 17,2 C 18,4 C 1,6 km/h (1 Bft) 100,00 %
22.07.2016 23:26 18,3 C 93 % 1013,5 hPa 0,0 l/m 1,0 km/h (0 Bft) S-SW 202 0 min 0,000 mm 0,0 UV-I 0 W/m 17,1 C 18,3 C 3,2 km/h (1 Bft) 100,00 %
22.07.2016 23:28 18,3 C 93 % 1013,5 hPa 0,0 l/m 2,6 km/h (1 Bft) S-SW 200 0 min 0,000 mm 0,0 UV-I 0 W/m 17,1 C 18,3 C 3,2 km/h (1 Bft) 100,00 %
22.07.2016 23:30 18,2 C 93 % 1013,6 hPa 0,0 l/m 2,2 km/h (1 Bft) S-SW 199 0 min 0,000 mm 0,0 UV-I 0 W/m 17,0 C 18,2 C 3,2 km/h (1 Bft) 100,00 %
22.07.2016 23:32 18,2 C 94 % 1013,6 hPa 0,0 l/m 3,4 km/h (1 Bft) S-SO 166 0 min 0,000 mm 0,0 UV-I 0 W/m 17,2 C 18,2 C 6,4 km/h (2 Bft) 100,00 %
22.07.2016 23:34 18,2 C 94 % 1013,5 hPa 0,0 l/m 4,7 km/h (1 Bft) S-SO 165 0 min 0,000 mm 0,0 UV-I 0 W/m 17,2 C 18,2 C 6,4 km/h (2 Bft) 100,00 %
22.07.2016 23:36 18,1 C 94 % 1013,5 hPa 0,0 l/m 4,1 km/h (1 Bft) SO 132 0 min 0,000 mm 0,0 UV-I 0 W/m 17,1 C 18,1 C 6,4 km/h (2 Bft) 100,00 %
22.07.2016 23:38 18,1 C 94 % 1013,5 hPa 0,0 l/m 2,9 km/h (1 Bft) SO 132 0 min 0,000 mm 0,0 UV-I 0 W/m 17,1 C 18,1 C 4,8 km/h (1 Bft) 100,00 %
22.07.2016 23:40 18,1 C 94 % 1013,5 hPa 0,0 l/m 2,1 km/h (1 Bft) O-SO 122 0 min 0,000 mm 0,0 UV-I 0 W/m 17,1 C 18,1 C 4,8 km/h (1 Bft) 100,00 %
22.07.2016 23:42 18,1 C 94 % 1013,5 hPa 0,0 l/m 2,4 km/h (1 Bft) O-SO 122 0 min 0,000 mm 0,0 UV-I 0 W/m 17,1 C 18,1 C 3,2 km/h (1 Bft) 100,00 %
22.07.2016 23:44 18,0 C 94 % 1013,5 hPa 0,0 l/m 2,4 km/h (1 Bft) O-SO 115 0 min 0,000 mm 0,0 UV-I 0 W/m 17,0 C 18,0 C 4,8 km/h (1 Bft) 98,11 %
22.07.2016 23:46 18,0 C 94 % 1013,5 hPa 0,0 l/m 2,9 km/h (1 Bft) O 91 0 min 0,000 mm 0,0 UV-I 0 W/m 17,0 C 18,0 C 4,8 km/h (1 Bft) 100,00 %
22.07.2016 23:48 18,0 C 94 % 1013,5 hPa 0,0 l/m 3,8 km/h (1 Bft) O 80 0 min 0,000 mm 0,0 UV-I 0 W/m 17,0 C 18,0 C 4,8 km/h (1 Bft) 98,00 %
22.07.2016 23:50 18,1 C 94 % 1013,6 hPa 0,0 l/m 3,9 km/h (1 Bft) O 80 0 min 0,000 mm 0,0 UV-I 0 W/m 17,1 C 18,1 C 4,8 km/h (1 Bft) 95,74 %
22.07.2016 23:52 18,1 C 94 % 1013,6 hPa 0,0 l/m 3,4 km/h (1 Bft) O-SO 111 0 min 0,000 mm 0,0 UV-I 0 W/m 17,1 C 18,1 C 6,4 km/h (2 Bft) 96,00 %
22.07.2016 23:54 18,1 C 94 % 1013,6 hPa 0,0 l/m 5,5 km/h (1 Bft) O 93 0 min 0,000 mm 0,0 UV-I 0 W/m 17,1 C 18,1 C 9,7 km/h (2 Bft) 93,62 %
22.07.2016 23:56 18,1 C 94 % 1013,6 hPa 0,0 l/m 3,5 km/h (1 Bft) O 96 0 min 0,000 mm 0,0 UV-I 0 W/m 17,1 C 18,1 C 4,8 km/h (1 Bft) 97,56 %
22.07.2016 23:58 18,1 C 94 % 1013,6 hPa 0,0 l/m 1,8 km/h (1 Bft) O 96 0 min 0,000 mm 0,0 UV-I 0 W/m 17,1 C 18,1 C 3,2 km/h (1 Bft) 96,00 %
_ Min-Zeit 23:44 15:24 17:58 - 00:12 - - - - - - 18:46 06:28 00:12 04:30
Minimum _ 18,0 C 50 % 1011,4 hPa - 0,0 km/h (0 Bft) - - - - - - 15,7 C 17,1 C 0,0 km/h (0 Bft) 91,49 %
_ Max-Zeit 16:12 04:08 08:14 21:20 17:36 - - 10:30 15:00 13:10 11:50 11:14 16:10 17:26 00:00
Maximum _ 28,3 C 94 % 1014,7 hPa 0,2 l/m 17,3 km/h
N-NO (3 Bft)
- - 5 min 0,609 mm 6,8 UV-I 1040 W/m 19,9 C 28,2 C 29,0 km/h
O-NO (5 Bft)
100,00 %
Durchschnitt _ 22,2 C 77 % 1013,3 hPa #2,0 l/m 5,0 km/h (1 Bft) S - #6:38 h #4,064 mm 3,4 UV-I 388 W/m 17,6 C 22,0 C 8,7 km/h (2 Bft) 98,57 %